M I D A S
Marine Information and Data Acquisition System
Tripno 780 of the Zeeleeuw from 2004-08-18 07:47:36 to 2004-08-18 11:48:37
Back to CruiseResearch ActivitiesStationsMapUnderway DataData graphs

EquipmentUnitsComment
TimeDGPSUTC
LatitudeDGPSDM.mWGS84
LongitudeDGPSDM.mWGS84
TemperatureSBE03/SBE38deg celciusITS90
ConductivitySBE21S/mITS90
SalinitySBE21 Practical Salinity Units
ChlorophylAChelsea fluorimeterg/lCalibrated in Aceton
Missing or incorrect values are displayed as -999
Sea surface data collected by the RV Zeeleeuw from 2004-08-18 07:47:36 to 2004-08-18 11:48:37
                                                                                    Next 1000 lines
Time Latitude Longitude Temperature Conductivity Salinity ChlorophylA
2004-08-18 07:47:44 51°13.596 2°56.114 24.005689 0.073251 0.362107 -0.71383
2004-08-18 07:47:49 51°13.596 2°56.114 24.006646 0.073147 0.361573 -0.74754
2004-08-18 07:47:54 51°13.596 2°56.114 24.008482 0.073147 0.361578 -0.74754
2004-08-18 07:47:59 51°13.596 2°56.114 24.008482 0.073147 0.361578 -0.74754
2004-08-18 07:48:04 51°13.596 2°56.114 24.008826 0.073251 0.362112 -0.74754
2004-08-18 07:48:09 51°13.596 2°56.114 24.009285 0.073251 0.362112 -0.71383
2004-08-18 07:48:14 51°13.596 2°56.114 24.009706 0.073251 0.362112 -0.74754
2004-08-18 07:48:19 51°13.595 2°56.114 24.010165 0.073251 0.362117 -0.71383
2004-08-18 07:48:24 51°13.595 2°56.114 24.010854 0.073251 0.362122 -0.74754
2004-08-18 07:48:29 51°13.595 2°56.114 24.010854 0.073251 0.362122 -0.74754
2004-08-18 07:48:33 51°13.595 2°56.114 24.011389 0.073251 0.362122 -0.74754
2004-08-18 07:48:39 51°13.595 2°56.114 24.012269 0.073251 0.362128 -0.71383
2004-08-18 07:48:44 51°13.595 2°56.114 24.012422 0.073251 0.362128 -0.74754
2004-08-18 07:48:49 51°13.595 2°56.114 24.013111 0.073147 0.361603 -0.74754
2004-08-18 07:48:53 51°13.595 2°56.114 24.013493 0.073251 0.362133 -0.74754
2004-08-18 07:48:59 51°13.595 2°56.114 24.013493 0.073251 0.362133 -0.74754
2004-08-18 07:49:04 51°13.595 2°56.114 24.013952 0.073251 0.362133 -0.781249
2004-08-18 07:49:08 51°13.595 2°56.114 24.012116 0.073251 0.362138 -0.74754
2004-08-18 07:49:14 51°13.596 2°56.112 24.011236 0.073147 0.361613 -0.71383
2004-08-18 07:49:17 51°13.596 2°56.111 24.010165 0.073147 0.361619 -0.74754
2004-08-18 07:49:24 51°13.598 2°56.106 24.011695 0.073147 0.361624 -0.781249
2004-08-18 07:49:29 51°13.599 2°56.102 24.011695 0.073147 0.361624 -0.781249
2004-08-18 07:49:35 51°13.601 2°56.097 24.013646 0.073147 0.361624 -0.71383
2004-08-18 07:49:40 51°13.603 2°56.092 24.015674 0.073251 0.362158 -0.74754
2004-08-18 07:49:44 51°13.604 2°56.088 24.015521 0.073251 0.362158 -0.71383
2004-08-18 07:49:49 51°13.606 2°56.083 24.016592 0.073147 0.361634 -0.74754
2004-08-18 07:49:55 51°13.609 2°56.076 24.017395 0.073251 0.362163 -0.74754
2004-08-18 07:50:00 51°13.611 2°56.07 24.017395 0.073251 0.362163 -0.74754
2004-08-18 07:50:05 51°13.613 2°56.064 24.019002 0.073147 0.361634 -0.74754
2004-08-18 07:50:08 51°13.614 2°56.06 24.019155 0.073147 0.361639 -0.74754
2004-08-18 07:50:13 51°13.616 2°56.053 24.019499 0.073147 0.361639 -0.74754
2004-08-18 07:50:19 51°13.618 2°56.044 24.021411 0.073147 0.361644 -0.74754
2004-08-18 07:50:25 51°13.62 2°56.036 24.024204 0.073147 0.361644 -0.74754
2004-08-18 07:50:29 51°13.621 2°56.031 24.024204 0.073147 0.361644 -0.74754
2004-08-18 07:50:33 51°13.621 2°56.028 24.026384 0.073251 0.362173 -0.781249
2004-08-18 07:50:39 51°13.622 2°56.027 24.027263 0.073147 0.361644 -0.74754
2004-08-18 07:50:44 51°13.622 2°56.028 24.025466 0.073251 0.362173 -0.71383
2004-08-18 07:50:49 51°13.622 2°56.03 24.017242 0.073147 0.361639 -0.71383
2004-08-18 07:50:53 51°13.621 2°56.031 24.018849 0.073147 0.361639 -0.74754
2004-08-18 07:50:59 51°13.621 2°56.032 24.018849 0.073147 0.361639 -0.74754
2004-08-18 07:51:04 51°13.622 2°56.031 24.02057 0.073251 0.362178 -0.74754
2004-08-18 07:51:09 51°13.623 2°56.03 24.023592 0.073147 0.361659 -0.74754
2004-08-18 07:51:15 51°13.624 2°56.026 24.023133 0.073147 0.361674 -0.74754
2004-08-18 07:51:19 51°13.625 2°56.024 24.023133 0.073147 0.361689 -0.74754
2004-08-18 07:51:24 51°13.627 2°56.02 24.025389 0.073251 0.362229 -0.74754
2004-08-18 07:51:30 51°13.629 2°56.014 24.025389 0.073251 0.362229 -0.74754
2004-08-18 07:51:35 51°13.631 2°56.008 24.02669 0.073147 0.3617 -0.71383
2004-08-18 07:51:40 51°13.634 2°56.003 24.027722 0.073147 0.3617 -0.74754
2004-08-18 07:51:45 51°13.636 2°55.997 24.028793 0.073147 0.361695 -0.74754
2004-08-18 07:51:49 51°13.638 2°55.992 24.030438 0.073147 0.361689 -0.74754
2004-08-18 07:51:55 51°13.641 2°55.983 24.030897 0.073147 0.361684 -0.74754
2004-08-18 07:52:00 51°13.644 2°55.976 24.030897 0.073147 0.361684 -0.74754
2004-08-18 07:52:05 51°13.646 2°55.969 24.030744 0.073147 0.361684 -0.74754
2004-08-18 07:52:10 51°13.649 2°55.961 24.032771 0.073147 0.361689 -0.71383
2004-08-18 07:52:15 51°13.653 2°55.953 24.033 0.073147 0.361695 -0.71383
2004-08-18 07:52:20 51°13.656 2°55.945 24.034415 0.073147 0.3617 -0.781249
2004-08-18 07:52:25 51°13.659 2°55.937 24.034109 0.073147 0.361705 -0.74754
2004-08-18 07:52:29 51°13.661 2°55.93 24.034109 0.073147 0.361705 -0.74754
2004-08-18 07:52:35 51°13.665 2°55.92 24.034339 0.073251 0.362244 -0.74754
2004-08-18 07:52:40 51°13.668 2°55.911 24.034645 0.073147 0.361715 -0.74754
2004-08-18 07:52:45 51°13.671 2°55.902 24.036098 0.073147 0.361715 -0.71383
2004-08-18 07:52:50 51°13.674 2°55.894 24.036289 0.073147 0.361715 -0.71383
2004-08-18 07:52:55 51°13.677 2°55.886 24.036213 0.073147 0.361715 -0.74754
2004-08-18 07:53:00 51°13.68 2°55.878 24.036213 0.073147 0.361715 -0.74754
2004-08-18 07:53:05 51°13.682 2°55.869 24.036595 0.073147 0.36172 -0.74754
2004-08-18 07:53:09 51°13.684 2°55.863 24.036977 0.073147 0.361715 -0.74754
2004-08-18 07:53:15 51°13.686 2°55.853 24.037666 0.073147 0.36172 -0.781249
2004-08-18 07:53:20 51°13.688 2°55.845 24.038469 0.073147 0.36172 -0.74754
2004-08-18 07:53:25 51°13.69 2°55.837 24.038392 0.073147 0.36172 -0.74754
2004-08-18 07:53:29 51°13.691 2°55.83 24.038392 0.073147 0.36172 -0.74754
2004-08-18 07:53:33 51°13.692 2°55.824 24.039157 0.073147 0.361725 -0.74754
2004-08-18 07:53:40 51°13.694 2°55.813 24.039922 0.073147 0.36173 -0.74754
2004-08-18 07:53:44 51°13.695 2°55.807 24.040228 0.073147 0.36173 -0.74754
2004-08-18 07:53:49 51°13.695 2°55.8 24.041031 0.073147 0.36174 -0.71383
2004-08-18 07:53:55 51°13.696 2°55.791 24.041719 0.073147 0.361735 -0.71383
2004-08-18 07:53:59 51°13.696 2°55.785 24.041719 0.073147 0.361735 -0.71383
2004-08-18 07:54:04 51°13.696 2°55.778 24.04256 0.073147 0.361735 -0.71383
2004-08-18 07:54:09 51°13.696 2°55.771 24.04344 0.073147 0.36174 -0.71383
2004-08-18 07:54:15 51°13.696 2°55.763 24.043593 0.073147 0.36174 -0.71383
2004-08-18 07:54:19 51°13.695 2°55.757 24.044663 0.073147 0.361735 -0.781249
2004-08-18 07:54:23 51°13.695 2°55.752 24.044893 0.073147 0.36174 -0.74754
2004-08-18 07:54:29 51°13.694 2°55.746 24.044893 0.073147 0.36174 -0.74754
2004-08-18 07:54:33 51°13.693 2°55.742 24.046002 0.073147 0.36174 -0.74754
2004-08-18 07:54:39 51°13.693 2°55.739 24.047875 0.073147 0.36174 -0.781249
2004-08-18 07:54:44 51°13.693 2°55.738 24.049328 0.073147 0.361745 -0.74754
2004-08-18 07:54:48 51°13.694 2°55.737 24.051202 0.073147 0.361745 -0.781249
2004-08-18 07:54:53 51°13.695 2°55.737 24.052502 0.073147 0.36175 -0.74754
2004-08-18 07:54:59 51°13.697 2°55.737 24.052502 0.073147 0.36175 -0.74754
2004-08-18 07:55:04 51°13.699 2°55.738 24.052846 0.073147 0.36175 -0.781249
2004-08-18 07:55:09 51°13.702 2°55.739 24.054604 0.073147 0.361755 -0.74754
2004-08-18 07:55:14 51°13.705 2°55.739 24.056019 0.073147 0.361766 -0.781249
2004-08-18 07:55:19 51°13.709 2°55.738 24.058504 0.073147 0.361766 -0.646411
2004-08-18 07:55:24 51°13.713 2°55.737 24.061945 0.073147 0.361771 -0.71383
2004-08-18 07:55:28 51°13.717 2°55.734 24.061945 0.073147 0.361771 -0.71383
2004-08-18 07:55:34 51°13.723 2°55.73 24.059422 0.073147 0.361776 -0.74754
2004-08-18 07:55:39 51°13.728 2°55.725 24.051049 0.073147 0.361781 -0.71383
2004-08-18 07:55:44 51°13.733 2°55.721 24.051049 0.073147 0.361776 -0.71383
2004-08-18 07:55:49 51°13.738 2°55.715 24.050819 0.073147 0.361771 -0.74754
2004-08-18 07:55:53 51°13.742 2°55.71 24.04994 0.073147 0.361766 -0.74754
2004-08-18 07:55:59 51°13.75 2°55.703 24.04994 0.073147 0.361766 -0.74754
2004-08-18 07:56:04 51°13.757 2°55.695 24.051049 0.073147 0.361766 -0.74754
2004-08-18 07:56:08 51°13.762 2°55.689 24.050093 0.073147 0.361766 -0.74754
2004-08-18 07:56:14 51°13.771 2°55.68 24.052616 0.073147 0.361776 -0.74754
2004-08-18 07:56:16 51°13.774 2°55.677 24.050743 0.073147 0.361776 -0.781249
2004-08-18 07:56:24 51°13.788 2°55.664 24.052196 0.073147 0.361786 -0.781249
2004-08-18 07:56:27 51°13.793 2°55.66 24.052196 0.073147 0.361786 -0.781249
2004-08-18 07:56:33 51°13.804 2°55.65 24.054528 0.073147 0.361791 -0.74754
2004-08-18 07:56:39 51°13.816 2°55.641 24.054146 0.073147 0.361796 -0.74754
2004-08-18 07:56:44 51°13.826 2°55.634 24.056019 0.073147 0.361796 -0.74754
2004-08-18 07:56:48 51°13.834 2°55.628 24.057089 0.073147 0.361801 -0.74754
2004-08-18 07:56:52 51°13.842 2°55.622 24.059116 0.073147 0.361801 -0.781249
2004-08-18 07:56:59 51°13.857 2°55.611 24.059116 0.073147 0.361801 -0.781249
2004-08-18 07:57:04 51°13.868 2°55.604 24.060836 0.073147 0.361806 -0.74754
2004-08-18 07:57:08 51°13.877 2°55.597 24.063015 0.073147 0.361806 -0.71383
2004-08-18 07:57:12 51°13.885 2°55.591 24.063015 0.073147 0.361811 -0.74754
2004-08-18 07:57:19 51°13.901 2°55.579 24.063856 0.073147 0.361811 -0.74754
2004-08-18 07:57:24 51°13.912 2°55.571 24.065194 0.073147 0.361816 -0.74754
2004-08-18 07:57:29 51°13.923 2°55.563 24.065194 0.073147 0.361816 -0.74754
2004-08-18 07:57:32 51°13.93 2°55.558 24.066035 0.073147 0.361821 -0.74754
2004-08-18 07:57:39 51°13.946 2°55.547 24.064735 0.073147 0.361826 -0.781249
2004-08-18 07:57:44 51°13.957 2°55.539 24.06722 0.073147 0.361826 -0.74754
2004-08-18 07:57:48 51°13.967 2°55.533 24.067143 0.073147 0.361832 -0.781249
2004-08-18 07:57:54 51°13.981 2°55.523 24.068672 0.073147 0.361837 -0.74754
2004-08-18 07:57:56 51°13.985 2°55.52 24.068672 0.073147 0.361837 -0.74754
2004-08-18 07:58:04 51°14.004 2°55.508 24.069284 0.073147 0.361842 -0.71383
2004-08-18 07:58:09 51°14.015 2°55.499 24.072418 0.073147 0.361847 -0.781249
2004-08-18 07:58:13 51°14.024 2°55.493 24.072877 0.073147 0.361847 -0.74754
2004-08-18 07:58:20 51°14.04 2°55.481 24.071081 0.073147 0.361852 -0.781249
2004-08-18 07:58:24 51°14.049 2°55.474 24.072113 0.073147 0.361842 -0.781249
2004-08-18 07:58:29 51°14.061 2°55.466 24.072113 0.073147 0.361842 -0.781249
2004-08-18 07:58:32 51°14.068 2°55.461 24.07303 0.073147 0.361847 -0.781249
2004-08-18 07:58:39 51°14.084 2°55.449 24.076929 0.073147 0.361852 -0.74754
2004-08-18 07:58:44 51°14.096 2°55.44 24.077005 0.073147 0.361852 -0.71383
2004-08-18 07:58:48 51°14.105 2°55.433 24.074826 0.073147 0.361847 -0.74754
2004-08-18 07:58:54 51°14.12 2°55.422 24.076852 0.073147 0.361852 -0.74754
2004-08-18 07:58:59 51°14.133 2°55.413 24.076852 0.073147 0.361852 -0.74754
2004-08-18 07:59:04 51°14.146 2°55.404 24.077999 0.073147 0.361857 -0.781249
2004-08-18 07:59:09 51°14.158 2°55.394 24.079566 0.073147 0.361862 -0.74754
2004-08-18 07:59:13 51°14.169 2°55.385 24.081133 0.073147 0.361867 -0.74754
2004-08-18 07:59:19 51°14.184 2°55.371 24.082585 0.073147 0.361872 -0.74754
2004-08-18 07:59:24 51°14.196 2°55.359 24.084458 0.073147 0.361877 -0.71383
2004-08-18 07:59:29 51°14.208 2°55.347 24.084458 0.073147 0.361877 -0.71383
2004-08-18 07:59:35 51°14.222 2°55.33 24.086789 0.073147 0.361877 -0.74754
2004-08-18 07:59:39 51°14.231 2°55.318 24.087859 0.073147 0.361877 -0.74754
2004-08-18 07:59:44 51°14.241 2°55.302 24.087706 0.073147 0.361882 -0.781249
2004-08-18 07:59:49 51°14.252 2°55.286 24.084305 0.073147 0.361882 -0.781249
2004-08-18 07:59:53 51°14.26 2°55.273 24.082738 0.073147 0.361877 -0.74754
2004-08-18 07:59:59 51°14.273 2°55.253 24.082738 0.073147 0.361877 -0.74754
2004-08-18 08:00:04 51°14.283 2°55.235 24.086254 0.073147 0.361882 -0.74754
2004-08-18 08:00:08 51°14.291 2°55.221 24.084458 0.073147 0.361882 -0.74754
2004-08-18 08:00:13 51°14.301 2°55.203 24.079566 0.073147 0.361877 -0.781249
2004-08-18 08:00:19 51°14.313 2°55.181 24.084458 0.073147 0.361882 -0.74754
2004-08-18 08:00:24 51°14.323 2°55.163 24.087859 0.073147 0.361887 -0.74754
2004-08-18 08:00:29 51°14.333 2°55.144 24.087859 0.073147 0.361887 -0.74754
2004-08-18 08:00:31 51°14.337 2°55.136 24.08484 0.073147 0.361892 -0.71383
2004-08-18 08:00:39 51°14.352 2°55.106 24.088776 0.073147 0.361892 -0.74754
2004-08-18 08:00:43 51°14.36 2°55.089 24.092291 0.073147 0.361903 -0.74754
2004-08-18 08:00:49 51°14.371 2°55.065 24.090687 0.073147 0.361903 -0.74754
2004-08-18 08:00:54 51°14.38 2°55.043 24.091986 0.073147 0.361908 -0.74754
2004-08-18 08:00:59 51°14.39 2°55.02 24.091986 0.073147 0.361908 -0.74754
2004-08-18 08:01:03 51°14.398 2°55.002 24.090343 0.073147 0.361897 -0.781249
2004-08-18 08:01:08 51°14.407 2°54.978 24.094317 0.073147 0.361903 -0.74754
2004-08-18 08:01:13 51°14.416 2°54.953 24.107384 0.073147 0.361735 -0.781249
2004-08-18 08:01:19 51°14.427 2°54.922 24.099819 0.072939 0.360272 -0.74754
2004-08-18 08:01:24 51°14.434 2°54.895 24.097488 0.072835 0.359819 -0.71383
2004-08-18 08:01:29 51°14.442 2°54.868 24.09787 0.072835 0.35991 -0.781249
2004-08-18 08:01:33 51°14.447 2°54.846 24.09787 0.072835 0.35991 -0.781249
2004-08-18 08:01:39 51°14.455 2°54.812 24.097565 0.072835 0.359965 -0.74754
2004-08-18 08:01:44 51°14.46 2°54.783 24.097794 0.072835 0.35998 -0.781249
2004-08-18 08:01:49 51°14.466 2°54.754 24.041031 0.072835 0.359955 -0.74754
2004-08-18 08:01:54 51°14.471 2°54.725 24.046308 0.072835 0.359905 -0.71383
2004-08-18 08:01:59 51°14.476 2°54.696 24.046308 0.072835 0.359905 -0.71383
2004-08-18 08:02:05 51°14.482 2°54.66 24.057013 0.072835 0.359869 -0.74754
2004-08-18 08:02:09 51°14.485 2°54.636 24.062136 0.072835 0.359864 -0.74754
2004-08-18 08:02:13 51°14.489 2°54.612 24.068443 0.072835 0.359869 -0.74754
2004-08-18 08:02:19 51°14.493 2°54.576 24.080024 0.072835 0.35989 -0.74754
2004-08-18 08:02:24 51°14.495 2°54.546 24.081209 0.072835 0.3599 -0.74754
2004-08-18 08:02:29 51°14.496 2°54.515 24.081209 0.072835 0.3599 -0.74754
2004-08-18 08:02:33 51°14.497 2°54.491 24.082279 0.072835 0.35991 -0.71383
2004-08-18 08:02:39 51°14.498 2°54.454 24.046461 0.072835 0.359915 -0.71383
2004-08-18 08:02:44 51°14.499 2°54.423 24.050284 0.072939 0.360439 -0.71383
2004-08-18 08:02:49 51°14.499 2°54.392 24.065653 0.072835 0.3599 -0.74754
2004-08-18 08:02:54 51°14.497 2°54.361 24.081553 0.072835 0.3599 -0.74754
2004-08-18 08:02:59 51°14.494 2°54.331 24.081553 0.072835 0.3599 -0.74754
2004-08-18 08:03:04 51°14.491 2°54.301 24.077081 0.072939 0.360429 -0.74754
2004-08-18 08:03:09 51°14.486 2°54.271 24.079489 0.072835 0.35991 -0.781249
2004-08-18 08:03:13 51°14.482 2°54.247 24.077616 0.072939 0.360429 -0.74754
2004-08-18 08:03:19 51°14.474 2°54.213 23.955324 0.072835 0.360815 -0.74754
2004-08-18 08:03:24 51°14.466 2°54.186 23.153315 0.076266 0.378377 -0.71383
2004-08-18 08:03:29 51°14.457 2°54.159 23.153315 0.076266 0.378377 -0.71383
2004-08-18 08:03:35 51°14.445 2°54.128 21.784116 0.092902 0.464073 -0.74754
2004-08-18 08:03:39 51°14.437 2°54.108 21.528917 0.878861 4.97039 0.499708
2004-08-18 08:03:44 51°14.427 2°54.083 21.247996 2.59977 16.17156 0.533418
2004-08-18 08:03:49 51°14.416 2°54.057 21.154028 4.183541 27.631127 0.39858
2004-08-18 08:03:53 51°14.408 2°54.037 21.024769 4.125239 27.497461 0.499708
2004-08-18 08:03:59 51°14.396 2°54.006 21.024769 4.125239 27.497461 0.499708
2004-08-18 08:04:04 51°14.385 2°53.98 20.992736 4.521359 30.923581 0.904221
2004-08-18 08:04:09 51°14.375 2°53.954 20.894874 4.532335 31.307063 0.836802
2004-08-18 08:04:14 51°14.365 2°53.928 20.87937 4.555863 31.737977 0.870512
2004-08-18 08:04:19 51°14.355 2°53.901 20.833516 3.735444 25.57156 0.870512
2004-08-18 08:04:24 51°14.345 2°53.875 20.806918 4.577283 32.168183 0.701965
2004-08-18 08:04:29 51°14.336 2°53.848 20.806918 4.577283 32.168183 0.701965
2004-08-18 08:04:32 51°14.33 2°53.832 20.802117 4.599226 32.427487 0.668255
2004-08-18 08:04:39 51°14.317 2°53.794 20.756054 4.610515 32.583454 0.634546
2004-08-18 08:04:44 51°14.308 2°53.767 20.751049 4.620116 32.700733 0.668255
2004-08-18 08:04:49 51°14.298 2°53.74 20.7418 4.62307 32.75976 0.634546
2004-08-18 08:04:55 51°14.286 2°53.707 20.725101 4.568954 32.353501 0.533418
2004-08-18 08:04:59 51°14.278 2°53.686 20.725101 4.568954 32.353501 0.533418
2004-08-18 08:05:04 51°14.268 2°53.66 20.716009 4.639001 32.928977 0.533418
2004-08-18 08:05:09 51°14.257 2°53.634 20.730948 4.601129 32.652632 0.499708
2004-08-18 08:05:15 51°14.244 2°53.603 20.708558 4.628452 32.886905 0.567127
2004-08-18 08:05:19 51°14.236 2°53.582 20.733031 4.653244 33.099863 0.499708
2004-08-18 08:05:24 51°14.225 2°53.555 20.687243 4.620752 32.857792 0.499708
2004-08-18 08:05:29 51°14.215 2°53.529 20.687243 4.620752 32.857792 0.499708
2004-08-18 08:05:35 51°14.202 2°53.497 20.68576 4.611785 32.797661 0.567127
2004-08-18 08:05:39 51°14.194 2°53.476 20.674218 4.660629 33.194445 0.533418
2004-08-18 08:05:44 51°14.184 2°53.449 20.684478 4.660946 33.202394 0.533418
2004-08-18 08:05:49 51°14.174 2°53.422 20.674579 4.659786 33.194762 0.533418
2004-08-18 08:05:51 51°14.17 2°53.411 20.666201 4.663162 33.23256 0.499708
2004-08-18 08:05:59 51°14.154 2°53.368 20.666201 4.663162 33.23256 0.499708
2004-08-18 08:06:04 51°14.144 2°53.34 20.66544 4.665061 33.258048 0.499708
2004-08-18 08:06:09 51°14.134 2°53.313 20.66544 4.665061 33.265664 0.465999
2004-08-18 08:06:13 51°14.126 2°53.292 20.638337 4.670019 33.307996 0.499708
2004-08-18 08:06:19 51°14.113 2°53.259 20.638297 4.671074 33.321877 0.499708
2004-08-18 08:06:23 51°14.105 2°53.238 20.633284 4.671075 33.326785 0.499708
2004-08-18 08:06:29 51°14.092 2°53.206 20.633284 4.671075 33.326785 0.499708
2004-08-18 08:06:34 51°14.081 2°53.18 20.634167 4.674662 33.360914 0.499708
2004-08-18 08:06:39 51°14.07 2°53.154 20.637014 4.679515 33.402449 0.499708
2004-08-18 08:06:44 51°14.059 2°53.127 20.638297 4.682469 33.436474 0.533418
2004-08-18 08:06:49 51°14.048 2°53.101 20.634608 4.682996 33.446172 0.465999
2004-08-18 08:06:55 51°14.035 2°53.069 20.622055 4.682152 33.443802 0.499708
2004-08-18 08:06:59 51°14.027 2°53.048 20.622055 4.682152 33.443802 0.499708
2004-08-18 08:07:04 51°14.016 2°53.021 20.610502 4.682891 33.453 0.533418
2004-08-18 08:07:09 51°14.006 2°52.994 20.62414 4.681731 33.440973 0.499708
2004-08-18 08:07:15 51°13.994 2°52.962 20.611946 4.681942 33.445401 0.499708
2004-08-18 08:07:19 51°13.986 2°52.94 20.609539 4.681203 33.443875 0.465999
2004-08-18 08:07:24 51°13.976 2°52.912 20.618485 4.681414 33.44995 0.567127
2004-08-18 08:07:29 51°13.966 2°52.885 20.618485 4.681414 33.44995 0.567127
2004-08-18 08:07:34 51°13.956 2°52.857 20.606932 4.682364 33.462487 0.533418
2004-08-18 08:07:39 51°13.945 2°52.83 20.600232 4.682891 33.470003 0.465999
2004-08-18 08:07:44 51°13.935 2°52.803 20.604685 4.685212 33.488041 0.533418
2004-08-18 08:07:49 51°13.925 2°52.776 20.601516 4.687006 33.506799 0.499708
2004-08-18 08:07:53 51°13.916 2°52.754 20.590482 4.689538 33.53093 0.465999
2004-08-18 08:07:59 51°13.904 2°52.722 20.590482 4.689538 33.53093 0.465999
2004-08-18 08:08:04 51°13.893 2°52.695 20.586469 4.691226 33.546104 0.465999
2004-08-18 08:08:09 51°13.882 2°52.668 20.593371 4.692598 33.559846 0.533418
2004-08-18 08:08:14 51°13.871 2°52.641 20.592648 4.69302 33.56543 0.465999
2004-08-18 08:08:19 51°13.86 2°52.615 20.579606 4.694708 33.581713 0.567127
2004-08-18 08:08:25 51°13.848 2°52.583 20.582897 4.696079 33.597668 0.465999
2004-08-18 08:08:29 51°13.839 2°52.562 20.582897 4.696079 33.597668 0.465999
2004-08-18 08:08:33 51°13.83 2°52.54 20.582135 4.697134 33.607229 0.499708
2004-08-18 08:08:39 51°13.818 2°52.508 20.581292 4.697451 33.609215 0.499708
2004-08-18 08:08:44 51°13.807 2°52.481 20.580007 4.698611 33.620175 0.499708
2004-08-18 08:08:47 51°13.801 2°52.465 20.572823 4.700299 33.63647 0.465999
2004-08-18 08:08:53 51°13.789 2°52.432 20.575713 4.701355 33.648797 0.465999
2004-08-18 08:08:59 51°13.777 2°52.399 20.575713 4.701355 33.648797 0.465999
2004-08-18 08:09:04 51°13.766 2°52.372 20.575272 4.702937 33.662596 0.465999
2004-08-18 08:09:09 51°13.756 2°52.345 20.57198 4.704309 33.675256 0.465999
2004-08-18 08:09:12 51°13.75 2°52.329 20.572623 4.705786 33.687658 0.465999
2004-08-18 08:09:19 51°13.736 2°52.29 20.5662 4.70568 33.689024 0.465999
2004-08-18 08:09:24 51°13.726 2°52.263 20.568207 4.705469 33.688991 0.465999
2004-08-18 08:09:29 51°13.716 2°52.236 20.568207 4.705469 33.688991 0.465999
2004-08-18 08:09:34 51°13.705 2°52.209 20.567124 4.706102 33.695177 0.465999
2004-08-18 08:09:39 51°13.695 2°52.182 20.562106 4.706208 33.696577 0.465999
2004-08-18 08:09:44 51°13.684 2°52.156 20.56058 4.704098 33.681305 0.499708
2004-08-18 08:09:49 51°13.673 2°52.129 20.559296 4.705153 33.691431 0.465999
2004-08-18 08:09:53 51°13.664 2°52.108 20.555723 4.700194 33.652197 0.465999
2004-08-18 08:09:59 51°13.651 2°52.076 20.555723 4.700194 33.652197 0.465999
2004-08-18 08:10:04 51°13.64 2°52.049 20.554117 4.70568 33.698985 0.465999
2004-08-18 08:10:07 51°13.634 2°52.033 20.55496 4.708001 33.719275 0.465999
2004-08-18 08:10:13 51°13.621 2°52.001 20.555241 4.708951 33.73133 0.499708
2004-08-18 08:10:19 51°13.608 2°51.969 20.548536 4.710956 33.747978 0.499708
2004-08-18 08:10:24 51°13.598 2°51.942 20.55219 4.712644 33.76375 0.533418
2004-08-18 08:10:28 51°13.59 2°51.92 20.55219 4.712644 33.76375 0.533418
2004-08-18 08:10:33 51°13.58 2°51.892 20.551226 4.715492 33.787735 0.499708
2004-08-18 08:10:39 51°13.567 2°51.86 20.550463 4.714754 33.78347 0.465999
2004-08-18 08:10:44 51°13.557 2°51.832 20.545043 4.709162 33.738568 0.465999
2004-08-18 08:10:48 51°13.549 2°51.811 20.546127 4.718974 33.817365 0.465999
2004-08-18 08:10:53 51°13.538 2°51.784 20.541469 4.719607 33.824117 0.465999
2004-08-18 08:10:57 51°13.53 2°51.762 20.541469 4.719607 33.824117 0.465999
2004-08-18 08:11:04 51°13.514 2°51.725 20.542674 4.717075 33.804334 0.465999
2004-08-18 08:11:08 51°13.506 2°51.703 20.541067 4.720873 33.836512 0.499708
2004-08-18 08:11:13 51°13.495 2°51.677 20.540706 4.719291 33.826578 0.465999
2004-08-18 08:11:19 51°13.482 2°51.645 20.542593 4.719185 33.826843 0.465999
2004-08-18 08:11:24 51°13.471 2°51.618 20.546408 4.722772 33.857335 0.499708
2004-08-18 08:11:29 51°13.461 2°51.59 20.546408 4.722772 33.857335 0.499708
2004-08-18 08:11:33 51°13.453 2°51.569 20.542754 4.718658 33.824273 0.499708
2004-08-18 08:11:39 51°13.44 2°51.535 20.53926 4.723194 33.862396 0.465999
2004-08-18 08:11:44 51°13.43 2°51.508 20.535084 4.721928 33.850552 0.533418
2004-08-18 08:11:49 51°13.421 2°51.48 20.536369 4.726676 33.892049 0.465999
2004-08-18 08:11:54 51°13.41 2°51.453 20.536369 4.728047 33.901958 0.465999
2004-08-18 08:11:59 51°13.4 2°51.425 20.536369 4.728047 33.901958 0.465999
2004-08-18 08:12:04 51°13.39 2°51.398 20.535084 4.730157 33.91892 0.465999
2004-08-18 08:12:09 51°13.38 2°51.371 20.529984 4.728997 33.911264 0.465999
2004-08-18 08:12:14 51°13.369 2°51.344 20.52416 4.731424 33.934677 0.432289
2004-08-18 08:12:16 51°13.364 2°51.333 20.52416 4.732162 33.941173 0.465999
2004-08-18 08:12:24 51°13.347 2°51.291 20.523477 4.734378 33.957872 0.465999
2004-08-18 08:12:29 51°13.337 2°51.264 20.523477 4.734378 33.957872 0.465999
2004-08-18 08:12:34 51°13.326 2°51.237 20.528819 4.72963 33.919699 0.465999
2004-08-18 08:12:37 51°13.32 2°51.221 20.524803 4.734905 33.966582 0.465999
2004-08-18 08:12:45 51°13.304 2°51.177 20.523638 4.736277 33.979849 0.465999
2004-08-18 08:12:49 51°13.296 2°51.155 20.517492 4.735644 33.975875 0.39858
2004-08-18 08:12:53 51°13.288 2°51.133 20.520987 4.729736 33.928917 0.432289
2004-08-18 08:12:59 51°13.276 2°51.1 20.520987 4.729736 33.928917 0.432289
2004-08-18 08:13:05 51°13.264 2°51.067 20.521348 4.735433 33.975855 0.465999
2004-08-18 08:13:09 51°13.256 2°51.045 20.513154 4.735116 33.97275 0.533418
2004-08-18 08:13:13 51°13.248 2°51.023 20.510543 4.737543 33.994506 0.465999
2004-08-18 08:13:19 51°13.235 2°50.991 20.511145 4.738071 34.000987 0.432289
2004-08-18 08:13:24 51°13.224 2°50.964 20.509659 4.737649 33.997033 0.499708
2004-08-18 08:13:29 51°13.214 2°50.937 20.509659 4.737649 33.997033 0.499708
2004-08-18 08:13:33 51°13.206 2°50.915 20.501101 4.736805 33.991361 0.465999
2004-08-18 08:13:39 51°13.193 2°50.883 20.500418 4.737754 34.002357 0.533418
2004-08-18 08:13:44 51°13.183 2°50.855 20.500338 4.734906 33.979997 0.533418
2004-08-18 08:13:49 51°13.173 2°50.828 20.499695 4.7348 33.981386 0.499708
2004-08-18 08:13:53 51°13.165 2°50.806 20.498972 4.740286 34.028332 0.499708
2004-08-18 08:13:59 51°13.153 2°50.773 20.498972 4.740286 34.028332 0.499708
2004-08-18 08:14:04 51°13.144 2°50.745 20.495356 4.738915 34.018974 0.465999
2004-08-18 08:14:08 51°13.136 2°50.723 20.495436 4.741447 34.042716 0.465999
2004-08-18 08:14:15 51°13.124 2°50.683 20.493427 4.741553 34.043566 0.533418
2004-08-18 08:14:19 51°13.116 2°50.661 20.484707 4.741764 34.045825 0.465999
2004-08-18 08:14:24 51°13.107 2°50.633 20.483582 4.741131 34.041289 0.465999
2004-08-18 08:14:28 51°13.1 2°50.61 20.483582 4.741131 34.041289 0.465999
2004-08-18 08:14:35 51°13.086 2°50.571 20.481733 4.741764 34.048628 0.432289
2004-08-18 08:14:39 51°13.078 2°50.55 20.484707 4.742819 34.058804 0.432289
2004-08-18 08:14:44 51°13.068 2°50.522 20.478839 4.740498 34.042919 0.533418
2004-08-18 08:14:49 51°13.058 2°50.495 20.479161 4.74208 34.059027 0.499708
2004-08-18 08:14:54 51°13.048 2°50.467 20.481532 4.743768 34.074866 0.533418
2004-08-18 08:14:59 51°13.038 2°50.44 20.481532 4.743768 34.074866 0.533418
2004-08-18 08:15:05 51°13.026 2°50.407 20.480648 4.743769 34.07655 0.432289
2004-08-18 08:15:08 51°13.02 2°50.391 20.477794 4.741553 34.059828 0.499708
2004-08-18 08:15:13 51°13.01 2°50.363 20.474458 4.743663 34.079069 0.499708
2004-08-18 08:15:19 51°12.999 2°50.33 20.473092 4.734695 34.006844 0.432289
2004-08-18 08:15:24 51°12.989 2°50.302 20.473614 4.744191 34.083879 0.533418
2004-08-18 08:15:29 51°12.979 2°50.274 20.473614 4.744191 34.083879 0.533418
2004-08-18 08:15:35 51°12.968 2°50.241 20.471805 4.742714 34.071982 0.465999
2004-08-18 08:15:39 51°12.96 2°50.219 20.470881 4.744296 34.086414 0.499708
2004-08-18 08:15:44 51°12.951 2°50.191 20.464128 4.744296 34.086976 0.432289
2004-08-18 08:15:49 51°12.941 2°50.163 20.46252 4.744613 34.091772 0.533418
2004-08-18 08:15:53 51°12.934 2°50.141 20.463806 4.733324 34.000842 0.432289
2004-08-18 08:15:59 51°12.922 2°50.107 20.463806 4.733324 34.000842 0.432289
2004-08-18 08:16:04 51°12.912 2°50.08 20.464329 4.74514 34.09827 0.533418
2004-08-18 08:16:09 51°12.903 2°50.052 20.46457 4.744929 34.097693 0.432289
2004-08-18 08:16:14 51°12.893 2°50.025 20.467504 4.745879 34.107593 0.499708
2004-08-18 08:16:19 51°12.882 2°49.997 20.46055 4.734484 34.017475 0.499708
2004-08-18 08:16:24 51°12.872 2°49.97 20.465173 4.737966 34.046644 0.499708
2004-08-18 08:16:29 51°12.862 2°49.942 20.465173 4.737966 34.046644 0.499708
2004-08-18 08:16:33 51°12.854 2°49.92 20.459022 4.747145 34.12117 0.465999
2004-08-18 08:16:39 51°12.843 2°49.887 20.456248 4.746512 34.115505 0.465999
2004-08-18 08:16:44 51°12.833 2°49.859 20.454238 4.747356 34.12287 0.465999
2004-08-18 08:16:47 51°12.828 2°49.842 20.453313 4.747251 34.123145 0.499708
2004-08-18 08:16:54 51°12.814 2°49.802 20.452389 4.748622 34.133074 0.499708
2004-08-18 08:16:59 51°12.804 2°49.774 20.452389 4.748622 34.133074 0.499708
2004-08-18 08:17:04 51°12.795 2°49.746 20.451022 4.748517 34.133349 0.432289
2004-08-18 08:17:09 51°12.785 2°49.718 20.451625 4.749044 34.141541 0.465999
2004-08-18 08:17:15 51°12.773 2°49.685 20.455203 4.748833 34.140403 0.533418
2004-08-18 08:17:19 51°12.765 2°49.663 20.451182 4.74915 34.144643 0.432289
2004-08-18 08:17:24 51°12.755 2°49.635 20.45074 4.749466 34.149447 0.432289
2004-08-18 08:17:29 51°12.745 2°49.608 20.45074 4.749466 34.149447 0.432289
2004-08-18 08:17:32 51°12.739 2°49.591 20.449413 4.749361 34.149722 0.499708
2004-08-18 08:17:39 51°12.725 2°49.553 20.444025 4.749044 34.146044 0.432289
2004-08-18 08:17:44 51°12.715 2°49.525 20.451263 4.748728 34.14293 0.533418
2004-08-18 08:17:49 51°12.705 2°49.498 20.450579 4.748833 34.144343 0.499708
2004-08-18 08:17:54 51°12.695 2°49.47 20.449212 4.749572 34.151987 0.432289
2004-08-18 08:17:59 51°12.685 2°49.443 20.449212 4.749572 34.151987 0.432289
2004-08-18 08:18:04 51°12.676 2°49.415 20.443945 4.750416 34.161046 0.465999
2004-08-18 08:18:09 51°12.666 2°49.387 20.445835 4.751788 34.171542 0.567127
2004-08-18 08:18:15 51°12.654 2°49.354 20.445795 4.752526 34.176934 0.432289
2004-08-18 08:18:19 51°12.647 2°49.331 20.445151 4.752948 34.179774 0.465999
2004-08-18 08:18:24 51°12.638 2°49.303 20.44302 4.754109 34.19026 0.499708
2004-08-18 08:18:29 51°12.628 2°49.275 20.44302 4.754109 34.19026 0.499708
2004-08-18 08:18:35 51°12.617 2°49.242 20.440849 4.755058 34.197918 0.499708
2004-08-18 08:18:39 51°12.609 2°49.22 20.438838 4.755375 34.201599 0.465999
2004-08-18 08:18:44 51°12.6 2°49.192 20.440969 4.756008 34.208397 0.465999
2004-08-18 08:18:49 51°12.59 2°49.164 20.436666 4.756008 34.208397 0.465999
2004-08-18 08:18:53 51°12.582 2°49.142 20.439924 4.755902 34.208675 0.432289
2004-08-18 08:18:59 51°12.571 2°49.109 20.439924 4.755902 34.208675 0.432289
2004-08-18 08:19:05 51°12.559 2°49.075 20.438798 4.756324 34.214336 0.533418
2004-08-18 08:19:07 51°12.555 2°49.064 20.439481 4.756746 34.218305 0.499708
2004-08-18 08:19:13 51°12.544 2°49.031 20.441452 4.756219 34.214614 0.567127
2004-08-18 08:19:19 51°12.532 2°48.997 20.443342 4.756113 34.214892 0.533418
2004-08-18 08:19:23 51°12.525 2°48.975 20.439763 4.756008 34.214041 0.465999
2004-08-18 08:19:29 51°12.514 2°48.941 20.439763 4.756008 34.214041 0.465999
2004-08-18 08:19:33 51°12.506 2°48.918 20.438154 4.756219 34.215178 0.499708
2004-08-18 08:19:39 51°12.495 2°48.885 20.43924 4.756219 34.21405 0.465999
2004-08-18 08:19:44 51°12.485 2°48.857 20.436023 4.756008 34.211219 0.499708
2004-08-18 08:19:49 51°12.476 2°48.83 20.436023 4.756008 34.211783 0.499708
2004-08-18 08:19:54 51°12.466 2°48.802 20.435983 4.756219 34.21405 0.499708
2004-08-18 08:20:00 51°12.454 2°48.769 20.435983 4.756219 34.21405 0.499708
2004-08-18 08:20:04 51°12.446 2°48.747 20.436023 4.756113 34.214327 0.499708
2004-08-18 08:20:08 51°12.438 2°48.725 20.436586 4.756535 34.218861 0.499708
2004-08-18 08:20:13 51°12.428 2°48.697 20.439321 4.756008 34.215734 0.465999
2004-08-18 08:20:19 51°12.417 2°48.664 20.43735 4.756113 34.21715 0.533418
2004-08-18 08:20:24 51°12.407 2°48.636 20.436707 4.756747 34.222822 0.465999
2004-08-18 08:20:29 51°12.397 2°48.609 20.438918 4.756852 34.222544 0.465999
2004-08-18 08:20:34 51°12.388 2°48.581 20.438918 4.756852 34.222544 0.465999
2004-08-18 08:20:39 51°12.378 2°48.553 20.439602 4.756535 34.219425 0.465999
2004-08-18 08:20:44 51°12.369 2°48.525 20.437551 4.756852 34.22085 0.499708
2004-08-18 08:20:49 51°12.359 2°48.498 20.442135 4.756957 34.222266 0.533418
2004-08-18 08:20:53 51°12.352 2°48.475 20.440085 4.75738 34.226235 0.533418
2004-08-18 08:20:59 51°12.34 2°48.442 20.440085 4.75738 34.226235 0.533418
2004-08-18 08:21:04 51°12.331 2°48.414 20.43916 4.756957 34.222266 0.465999
2004-08-18 08:21:09 51°12.321 2°48.387 20.438838 4.757169 34.223968 0.465999
2004-08-18 08:21:13 51°12.313 2°48.365 20.441291 4.756958 34.22283 0.499708
2004-08-18 08:21:19 51°12.301 2°48.332 20.440366 4.756219 34.215743 0.465999
2004-08-18 08:21:24 51°12.292 2°48.305 20.444347 4.757274 34.223125 0.39858
2004-08-18 08:21:28 51°12.284 2°48.283 20.444347 4.757274 34.223125 0.39858
2004-08-18 08:21:33 51°12.274 2°48.255 20.442135 4.756957 34.220572 0.465999
2004-08-18 08:21:39 51°12.262 2°48.222 20.441613 4.757063 34.222552 0.465999
2004-08-18 08:21:44 51°12.253 2°48.195 20.441733 4.757379 34.224541 0.432289
2004-08-18 08:21:48 51°12.245 2°48.173 20.442899 4.757063 34.221988 0.465999
2004-08-18 08:21:53 51°12.235 2°48.145 20.445473 4.757063 34.220859 0.432289
2004-08-18 08:21:59 51°12.223 2°48.112 20.445473 4.757063 34.220859 0.432289
2004-08-18 08:22:04 51°12.213 2°48.084 20.441452 4.756957 34.220007 0.432289
2004-08-18 08:22:09 51°12.203 2°48.057 20.445232 4.757379 34.222847 0.465999
2004-08-18 08:22:14 51°12.193 2°48.029 20.444267 4.757063 34.220859 0.39858
2004-08-18 08:22:20 51°12.182 2°47.996 20.443181 4.758013 34.227954 0.39858
2004-08-18 08:22:24 51°12.174 2°47.974 20.444267 4.75759 34.223985 0.39858
2004-08-18 08:22:29 51°12.164 2°47.946 20.444267 4.75759 34.223985 0.39858
2004-08-18 08:22:32 51°12.159 2°47.929 20.442578 4.75759 34.225114 0.432289
2004-08-18 08:22:39 51°12.145 2°47.89 20.4431 4.757274 34.221432 0.39858
2004-08-18 08:22:44 51°12.136 2°47.861 20.441371 4.757801 34.225123 0.432289
2004-08-18 08:22:49 51°12.127 2°47.832 20.441894 4.758012 34.22739 0.364871
2004-08-18 08:22:53 51°12.119 2°47.81 20.44676 4.758012 34.225696 0.39858
2004-08-18 08:22:59 51°12.108 2°47.777 20.44676 4.758012 34.225696 0.39858
2004-08-18 08:23:04 51°12.098 2°47.749 20.444468 4.757907 34.225409 0.432289
2004-08-18 08:23:09 51°12.088 2°47.721 20.448288 4.758435 34.23023 0.39858
2004-08-18 08:23:13 51°12.081 2°47.699 20.447684 4.758224 34.230221 0.432289
2004-08-18 08:23:19 51°12.068 2°47.666 20.44692 4.758435 34.230794 0.364871
2004-08-18 08:23:24 51°12.058 2°47.639 20.445634 4.758012 34.22626 0.39858
2004-08-18 08:23:29 51°12.048 2°47.611 20.445634 4.758012 34.22626 0.39858
2004-08-18 08:23:34 51°12.039 2°47.583 20.448288 4.758118 34.226547 0.39858
2004-08-18 08:23:37 51°12.033 2°47.566 20.447282 4.758012 34.224567 0.39858
2004-08-18 08:23:44 51°12.02 2°47.526 20.448207 4.757274 34.218045 0.39858
2004-08-18 08:23:49 51°12.01 2°47.498 20.447242 4.757485 34.219747 0.432289
2004-08-18 08:23:55 51°11.999 2°47.464 20.448609 4.757801 34.223429 0.364871
2004-08-18 08:23:59 51°11.992 2°47.442 20.448609 4.757801 34.223429 0.364871
2004-08-18 08:24:04 51°11.982 2°47.413 20.445875 4.757485 34.219747 0.39858
2004-08-18 08:24:09 51°11.973 2°47.385 20.445232 4.75759 34.220598 0.364871
2004-08-18 08:24:13 51°11.965 2°47.363 20.44306 4.757274 34.218045 0.364871
2004-08-18 08:24:19 51°11.954 2°47.329 20.445232 4.757485 34.218618 0.39858
2004-08-18 08:24:24 51°11.944 2°47.301 20.446317 4.757485 34.219747 0.364871
2004-08-18 08:24:29 51°11.934 2°47.273 20.446317 4.757485 34.219747 0.364871
2004-08-18 08:24:34 51°11.925 2°47.245 20.44873 4.757696 34.222578 0.39858
2004-08-18 08:24:39 51°11.916 2°47.217 20.447604 4.757274 34.219174 0.39858
2004-08-18 08:24:44 51°11.906 2°47.189 20.450097 4.757063 34.219165 0.364871
2004-08-18 08:24:49 51°11.897 2°47.161 20.449655 4.757168 34.219452 0.331161
2004-08-18 08:24:53 51°11.89 2°47.139 20.450419 4.756746 34.215483 0.331161
2004-08-18 08:24:59 51°11.879 2°47.105 20.450419 4.756746 34.215483 0.331161
2004-08-18 08:25:04 51°11.869 2°47.077 20.449132 4.756219 34.210664 0.364871
2004-08-18 08:25:09 51°11.86 2°47.049 20.448046 4.756641 34.212375 0.331161
2004-08-18 08:25:14 51°11.85 2°47.021 20.449815 4.756535 34.211524 0.364871
2004-08-18 08:25:17 51°11.845 2°47.004 20.452188 4.756641 34.211811 0.364871
2004-08-18 08:25:24 51°11.831 2°46.965 20.45263 4.756746 34.211533 0.331161
2004-08-18 08:25:29 51°11.821 2°46.938 20.45263 4.756746 34.211533 0.331161
2004-08-18 08:25:32 51°11.816 2°46.921 20.451786 4.756535 34.210395 0.364871
2004-08-18 08:25:39 51°11.802 2°46.883 20.450941 4.756324 34.210386 0.364871
2004-08-18 08:25:45 51°11.79 2°46.849 20.451022 4.756324 34.209822 0.364871
2004-08-18 08:25:49 51°11.783 2°46.827 20.454439 4.75643 34.210109 0.331161
2004-08-18 08:25:53 51°11.775 2°46.805 20.452308 4.756535 34.209831 0.331161
2004-08-18 08:25:59 51°11.763 2°46.772 20.452308 4.756535 34.209831 0.331161
2004-08-18 08:26:04 51°11.754 2°46.744 20.453313 4.756219 34.207278 0.364871
2004-08-18 08:26:08 51°11.746 2°46.722 20.450861 4.756324 34.208694 0.331161
2004-08-18 08:26:15 51°11.732 2°46.684 20.45263 4.75643 34.206724 0.331161
2004-08-18 08:26:19 51°11.723 2°46.663 20.450338 4.75643 34.206724 0.364871
2004-08-18 08:26:24 51°11.713 2°46.636 20.451705 4.756746 34.209276 0.331161
2004-08-18 08:26:29 51°11.702 2°46.61 20.451705 4.756746 34.209276 0.331161
2004-08-18 08:26:34 51°11.691 2°46.584 20.448448 4.756324 34.205309 0.364871
2004-08-18 08:26:39 51°11.679 2°46.558 20.452027 4.756641 34.20899 0.331161
2004-08-18 08:26:44 51°11.668 2°46.533 20.45468 4.756535 34.208703 0.331161
2004-08-18 08:26:49 51°11.656 2°46.508 20.449976 4.756324 34.207001 0.331161
2004-08-18 08:26:54 51°11.645 2°46.482 20.452911 4.755902 34.204162 0.331161
2004-08-18 08:26:59 51°11.634 2°46.456 20.452911 4.755902 34.204162 0.331161
2004-08-18 08:27:04 51°11.623 2°46.43 20.45078 4.756535 34.209267 0.297452
2004-08-18 08:27:09 51°11.612 2°46.403 20.454761 4.756535 34.208703 0.297452
2004-08-18 08:27:14 51°11.602 2°46.377 20.451544 4.756113 34.205863 0.297452
2004-08-18 08:27:17 51°11.595 2°46.36 20.448288 4.756641 34.20899 0.297452
2004-08-18 08:27:24 51°11.582 2°46.322 20.451504 4.75643 34.207288 0.297452
2004-08-18 08:27:29 51°11.573 2°46.294 20.451504 4.75643 34.207288 0.297452
2004-08-18 08:27:32 51°11.568 2°46.277 20.449051 4.755902 34.204162 0.297452
2004-08-18 08:27:39 51°11.556 2°46.237 20.450057 4.755902 34.203033 0.331161
2004-08-18 08:27:44 51°11.548 2°46.208 20.450499 4.755691 34.20246 0.263742
2004-08-18 08:27:48 51°11.541 2°46.185 20.447604 4.756113 34.205863 0.297452
2004-08-18 08:27:53 51°11.534 2°46.156 20.447966 4.755797 34.203875 0.297452
2004-08-18 08:27:59 51°11.524 2°46.121 20.447966 4.755797 34.203875 0.297452
2004-08-18 08:28:04 51°11.517 2°46.092 20.448368 4.75548 34.201886 0.263742
2004-08-18 08:28:09 51°11.509 2°46.063 20.446599 4.755586 34.201609 0.263742
2004-08-18 08:28:12 51°11.504 2°46.046 20.448046 4.755058 34.197918 0.297452
2004-08-18 08:28:19 51°11.493 2°46.005 20.449413 4.755058 34.19961 0.297452
2004-08-18 08:28:24 51°11.485 2°45.977 20.447081 4.754531 34.195356 0.297452
2004-08-18 08:28:28 51°11.478 2°45.953 20.447081 4.754531 34.195356 0.297452
2004-08-18 08:28:35 51°11.467 2°45.913 20.44684 4.754531 34.196484 0.297452
2004-08-18 08:28:39 51°11.46 2°45.89 20.444628 4.753898 34.191942 0.263742
2004-08-18 08:28:45 51°11.45 2°45.856 20.445915 4.754425 34.194505 0.263742
2004-08-18 08:28:48 51°11.445 2°45.838 20.446317 4.754214 34.193367 0.297452
2004-08-18 08:28:52 51°11.439 2°45.815 20.447242 4.754531 34.196484 0.331161
2004-08-18 08:28:59 51°11.427 2°45.775 20.447242 4.754531 34.196484 0.331161
2004-08-18 08:29:04 51°11.419 2°45.746 20.447323 4.754531 34.197048 0.297452
2004-08-18 08:29:09 51°11.411 2°45.717 20.447765 4.754003 34.192229 0.297452
2004-08-18 08:29:14 51°11.403 2°45.688 20.447926 4.753476 34.189666 0.297452
2004-08-18 08:29:18 51°11.396 2°45.665 20.447323 4.753687 34.189676 0.263742
2004-08-18 08:29:23 51°11.388 2°45.636 20.445312 4.753792 34.191655 0.297452
2004-08-18 08:29:29 51°11.378 2°45.602 20.445312 4.753792 34.191655 0.297452
2004-08-18 08:29:33 51°11.371 2°45.579 20.443503 4.753898 34.190814 0.263742
2004-08-18 08:29:39 51°11.361 2°45.545 20.445955 4.753898 34.191942 0.263742
2004-08-18 08:29:44 51°11.353 2°45.516 20.44487 4.753792 34.189963 0.230033
2004-08-18 08:29:49 51°11.344 2°45.487 20.442296 4.753687 34.187985 0.297452
2004-08-18 08:29:54 51°11.337 2°45.458 20.442497 4.753265 34.186836 0.263742
2004-08-18 08:29:59 51°11.328 2°45.43 20.442497 4.753265 34.186836 0.263742
2004-08-18 08:30:04 51°11.321 2°45.401 20.442899 4.75337 34.188815 0.230033
2004-08-18 08:30:08 51°11.314 2°45.378 20.439522 4.753054 34.186826 0.263742
2004-08-18 08:30:13 51°11.306 2°45.349 20.44105 4.753581 34.190517 0.263742
2004-08-18 08:30:19 51°11.297 2°45.314 20.438838 4.752948 34.187103 0.230033
2004-08-18 08:30:24 51°11.289 2°45.285 20.439079 4.752843 34.186252 0.230033
2004-08-18 08:30:28 51°11.282 2°45.263 20.439079 4.752843 34.186252 0.230033
2004-08-18 08:30:34 51°11.272 2°45.228 20.438798 4.752632 34.185114 0.196324
2004-08-18 08:30:39 51°11.264 2°45.2 20.437873 4.752421 34.185104 0.230033
2004-08-18 08:30:44 51°11.256 2°45.171 20.435138 4.752315 34.182561 0.331161
2004-08-18 08:30:47 51°11.251 2°45.154 20.435339 4.751893 34.180285 0.263742
2004-08-18 08:30:55 51°11.238 2°45.108 20.434133 4.752104 34.181987 0.263742
2004-08-18 08:30:59 51°11.231 2°45.085 20.434133 4.752104 34.181987 0.263742
2004-08-18 08:31:04 51°11.224 2°45.056 20.432323 4.751682 34.180274 0.263742
2004-08-18 08:31:09 51°11.216 2°45.027 20.433972 4.751471 34.179136 0.263742
2004-08-18 08:31:13 51°11.21 2°45.003 20.4318 4.75126 34.178562 0.263742
2004-08-18 08:31:19 51°11.2 2°44.969 20.432605 4.751049 34.17686 0.263742
2004-08-18 08:31:24 51°11.193 2°44.94 20.430553 4.750838 34.175722 0.263742
2004-08-18 08:31:28 51°11.186 2°44.916 20.430553 4.750838 34.175722 0.263742
2004-08-18 08:31:33 51°11.178 2°44.888 20.430433 4.751049 34.179115 0.263742
2004-08-18 08:31:39 51°11.168 2°44.853 20.429025 4.750522 34.17486 0.263742
2004-08-18 08:31:44 51°11.16 2°44.825 20.428261 4.749994 34.171168 0.263742
2004-08-18 08:31:48 51°11.153 2°44.802 20.426692 4.750205 34.173998 0.297452
2004-08-18 08:31:55 51°11.141 2°44.762 20.426974 4.749572 34.168891 0.230033
2004-08-18 08:31:59 51°11.135 2°44.739 20.426974 4.749572 34.168891 0.230033
2004-08-18 08:32:04 51°11.126 2°44.711 20.430473 4.747462 34.15187 0.297452
2004-08-18 08:32:09 51°11.118 2°44.682 20.425526 4.746196 34.143911 0.263742
2004-08-18 08:32:13 51°11.112 2°44.658 20.425084 4.748834 34.165189 0.297452
2004-08-18 08:32:19 51°11.103 2°44.624 20.42814 4.748517 34.163199 0.297452
2004-08-18 08:32:24 51°11.095 2°44.595 20.425848 4.748095 34.160358 0.263742
2004-08-18 08:32:27 51°11.091 2°44.577 20.425848 4.748095 34.160358 0.263742
2004-08-18 08:32:33 51°11.081 2°44.542 20.425687 4.748517 34.163199 0.263742
2004-08-18 08:32:39 51°11.072 2°44.507 20.429508 4.747673 34.156954 0.297452
2004-08-18 08:32:44 51°11.064 2°44.478 20.430352 4.747462 34.155251 0.297452
2004-08-18 08:32:49 51°11.055 2°44.45 20.425446 4.747779 34.158368 0.297452
2004-08-18 08:32:54 51°11.047 2°44.421 20.428422 4.747357 34.1544 0.263742
2004-08-18 08:32:59 51°11.038 2°44.392 20.428422 4.747357 34.1544 0.263742
2004-08-18 08:33:03 51°11.032 2°44.369 20.431478 4.747357 34.153837 0.297452
2004-08-18 08:33:09 51°11.022 2°44.335 20.432685 4.747146 34.151571 0.263742
2004-08-18 08:33:14 51°11.013 2°44.306 20.428221 4.746935 34.149305 0.297452
2004-08-18 08:33:19 51°11.005 2°44.277 20.427457 4.746513 34.148718 0.297452
2004-08-18 08:33:23 51°10.999 2°44.254 20.427738 4.746407 34.14674 0.297452
2004-08-18 08:33:28 51°10.991 2°44.225 20.427738 4.746407 34.14674 0.297452
2004-08-18 08:33:33 51°10.983 2°44.196 20.429347 4.746407 34.144487 0.297452
2004-08-18 08:33:39 51°10.974 2°44.16 20.428221 4.746302 34.143636 0.297452
2004-08-18 08:33:44 51°10.967 2°44.131 20.429427 4.746091 34.141933 0.331161
2004-08-18 08:33:49 51°10.959 2°44.102 20.429588 4.745669 34.139656 0.263742
2004-08-18 08:33:53 51°10.953 2°44.078 20.432926 4.74588 34.141922 0.263742
2004-08-18 08:33:59 51°10.944 2°44.043 20.432926 4.74588 34.141922 0.263742
2004-08-18 08:34:04 51°10.936 2°44.015 20.430553 4.745774 34.140507 0.297452
2004-08-18 08:34:09 51°10.927 2°43.986 20.431036 4.745774 34.139944 0.263742
2004-08-18 08:34:14 51°10.919 2°43.957 20.43172 4.745457 34.136827 0.297452
2004-08-18 08:34:19 51°10.911 2°43.928 20.431036 4.745668 34.13684 0.297452
2004-08-18 08:34:24 51°10.902 2°43.899 20.433369 4.745457 34.135138 0.331161
2004-08-18 08:34:29 51°10.894 2°43.871 20.433369 4.745457 34.135138 0.331161
2004-08-18 08:34:32 51°10.889 2°43.854 20.434133 4.745563 34.137115 0.297452
2004-08-18 08:34:39 51°10.878 2°43.813 20.434374 4.745457 34.136264 0.263742
2004-08-18 08:34:44 51°10.87 2°43.784 20.433168 4.745246 34.133999 0.297452
2004-08-18 08:34:49 51°10.862 2°43.755 20.435138 4.745774 34.138254 0.297452
2004-08-18 08:34:55 51°10.852 2°43.721 20.437028 4.745985 34.138829 0.297452
2004-08-18 08:34:59 51°10.846 2°43.697 20.437028 4.745985 34.138829 0.297452
2004-08-18 08:35:04 51°10.838 2°43.668 20.435058 4.745985 34.137703 0.263742
2004-08-18 08:35:09 51°10.831 2°43.639 20.436707 4.745985 34.137703 0.297452
2004-08-18 08:35:13 51°10.825 2°43.615 20.435058 4.74609 34.13968 0.297452
2004-08-18 08:35:19 51°10.816 2°43.58 20.436425 4.745774 34.136001 0.297452
2004-08-18 08:35:24 51°10.808 2°43.551 20.43727 4.74609 34.137427 0.331161
2004-08-18 08:35:28 51°10.802 2°43.527 20.43727 4.74609 34.137427 0.331161
2004-08-18 08:35:33 51°10.794 2°43.498 20.43924 4.74609 34.13799 0.297452
2004-08-18 08:35:39 51°10.785 2°43.464 20.436948 4.746512 34.141394 0.297452
2004-08-18 08:35:44 51°10.776 2°43.435 20.43916 4.745985 34.136576 0.331161
2004-08-18 08:35:49 51°10.768 2°43.407 20.436787 4.746301 34.139129 0.263742
2004-08-18 08:35:51 51°10.764 2°43.395 20.435983 4.746301 34.138566 0.331161
2004-08-18 08:35:59 51°10.751 2°43.349 20.435983 4.746301 34.138566 0.331161
2004-08-18 08:36:03 51°10.744 2°43.326 20.437551 4.746512 34.140268 0.263742
2004-08-18 08:36:09 51°10.735 2°43.291 20.439602 4.746723 34.141969 0.263742
2004-08-18 08:36:14 51°10.727 2°43.262 20.437189 4.746618 34.140555 0.297452
2004-08-18 08:36:19 51°10.719 2°43.233 20.438717 4.746723 34.140843 0.297452
2004-08-18 08:36:23 51°10.713 2°43.209 20.438918 4.746618 34.141119 0.297452
2004-08-18 08:36:28 51°10.706 2°43.18 20.438918 4.746618 34.141119 0.297452
2004-08-18 08:36:33 51°10.698 2°43.151 20.438034 4.746618 34.140555 0.297452
2004-08-18 08:36:39 51°10.689 2°43.116 20.438918 4.746723 34.140843 0.263742
2004-08-18 08:36:44 51°10.681 2°43.087 20.439481 4.746829 34.141131 0.263742
2004-08-18 08:36:49 51°10.673 2°43.058 20.440085 4.746934 34.143108 0.297452
2004-08-18 08:36:53 51°10.666 2°43.035 20.439602 4.74704 34.141706 0.230033
2004-08-18 08:36:59 51°10.655 2°43.001 20.439602 4.74704 34.141706 0.230033
2004-08-18 08:37:04 51°10.647 2°42.973 20.438476 4.747145 34.142557 0.297452
2004-08-18 08:37:09 51°10.638 2°42.944 20.437551 4.747251 34.143971 0.297452
2004-08-18 08:37:14 51°10.629 2°42.916 20.436506 4.747251 34.143408 0.263742
2004-08-18 08:37:19 51°10.62 2°42.888 20.438034 4.747567 34.146524 0.263742
2004-08-18 08:37:24 51°10.612 2°42.859 20.438476 4.747778 34.148789 0.263742
2004-08-18 08:37:29 51°10.604 2°42.83 20.438476 4.747778 34.148789 0.263742
2004-08-18 08:37:32 51°10.6 2°42.812 20.436666 4.747567 34.147087 0.196324
2004-08-18 08:37:39 51°10.59 2°42.771 20.437551 4.747989 34.15049 0.263742
2004-08-18 08:37:44 51°10.583 2°42.742 20.437028 4.748095 34.151341 0.297452
2004-08-18 08:37:49 51°10.576 2°42.713 20.436345 4.747989 34.15049 0.263742
2004-08-18 08:37:54 51°10.569 2°42.683 20.433449 4.747989 34.1488 0.230033
2004-08-18 08:37:59 51°10.562 2°42.654 20.433449 4.747989 34.1488 0.230033
2004-08-18 08:38:04 51°10.555 2°42.624 20.43353 4.748306 34.15248 0.263742
2004-08-18 08:38:09 51°10.548 2°42.594 20.432243 4.7482 34.151629 0.196324
2004-08-18 08:38:13 51°10.542 2°42.571 20.431921 4.7482 34.151066 0.263742
2004-08-18 08:38:19 51°10.533 2°42.536 20.431639 4.747356 34.145948 0.263742
2004-08-18 08:38:24 51°10.526 2°42.507 20.43184 4.747884 34.15133 0.196324
2004-08-18 08:38:30 51°10.516 2°42.473 20.43184 4.747884 34.15133 0.196324
2004-08-18 08:38:35 51°10.508 2°42.444 20.431398 4.747146 34.147063 0.263742
2004-08-18 08:38:39 51°10.501 2°42.421 20.429789 4.747779 34.151606 0.297452
2004-08-18 08:38:45 51°10.49 2°42.387 20.428945 4.747462 34.15018 0.263742
2004-08-18 08:38:49 51°10.483 2°42.365 20.427738 4.746829 34.1462 0.230033
2004-08-18 08:38:55 51°10.473 2°42.331 20.428502 4.747146 34.14988 0.230033
2004-08-18 08:38:59 51°10.466 2°42.308 20.428502 4.747146 34.14988 0.230033
2004-08-18 08:39:04 51°10.458 2°42.28 20.429427 4.747251 34.150168 0.263742
2004-08-18 08:39:09 51°10.45 2°42.251 20.42814 4.747146 34.150444 0.263742
2004-08-18 08:39:13 51°10.444 2°42.228 20.428221 4.747146 34.151007 0.230033
2004-08-18 08:39:19 51°10.435 2°42.192 20.424923 4.747251 34.152422 0.196324
2004-08-18 08:39:24 51°10.428 2°42.163 20.424722 4.74704 34.15072 0.230033
2004-08-18 08:39:29 51°10.422 2°42.134 20.423796 4.746935 34.149869 0.263742
2004-08-18 08:39:34 51°10.415 2°42.104 20.423796 4.746935 34.149869 0.263742
2004-08-18 08:39:39 51°10.408 2°42.075 20.426974 4.747251 34.152422 0.263742
2004-08-18 08:39:44 51°10.401 2°42.045 20.425526 4.747251 34.152422 0.297452
2004-08-18 08:39:49 51°10.393 2°42.016 20.427577 4.746935 34.150996 0.230033
2004-08-18 08:39:54 51°10.386 2°41.986 20.426773 4.746724 34.150421 0.196324
2004-08-18 08:39:59 51°10.378 2°41.958 20.426773 4.746724 34.150421 0.196324
2004-08-18 08:40:04 51°10.37 2°41.929 20.423555 4.746935 34.152123 0.230033
2004-08-18 08:40:09 51°10.361 2°41.9 20.424762 4.746935 34.152123 0.196324
2004-08-18 08:40:15 51°10.351 2°41.867 20.423032 4.746829 34.150708 0.230033
2004-08-18 08:40:19 51°10.344 2°41.844 20.424158 4.746724 34.149857 0.196324
2004-08-18 08:40:24 51°10.335 2°41.816 20.423113 4.746618 34.150133 0.230033
2004-08-18 08:40:29 51°10.326 2°41.787 20.423113 4.746618 34.150133 0.230033
2004-08-18 08:40:33 51°10.319 2°41.765 20.423394 4.746513 34.148718 0.230033
2004-08-18 08:40:39 51°10.309 2°41.731 20.422952 4.746302 34.14758 0.230033
2004-08-18 08:40:44 51°10.302 2°41.702 20.420458 4.746407 34.148994 0.128905
2004-08-18 08:40:49 51°10.294 2°41.672 20.422751 4.746513 34.150409 0.162614
2004-08-18 08:40:53 51°10.288 2°41.649 20.418447 4.74588 34.145866 0.230033
2004-08-18 08:40:59 51°10.28 2°41.613 20.418447 4.74588 34.145866 0.230033
2004-08-18 08:41:04 51°10.273 2°41.584 20.418085 4.745985 34.146717 0.196324
2004-08-18 08:41:09 51°10.266 2°41.554 20.419895 4.745985 34.146153 0.230033
2004-08-18 08:41:14 51°10.26 2°41.524 20.418769 4.74588 34.145866 0.230033
2004-08-18 08:41:19 51°10.252 2°41.495 20.417924 4.745669 34.144163 0.230033
2004-08-18 08:41:24 51°10.245 2°41.466 20.41543 4.745774 34.146705 0.196324
2004-08-18 08:41:29 51°10.237 2°41.436 20.41543 4.745774 34.146705 0.196324
2004-08-18 08:41:33 51°10.231 2°41.413 20.413901 4.745774 34.147269 0.230033
2004-08-18 08:41:39 51°10.221 2°41.379 20.413137 4.745141 34.142725 0.196324
2004-08-18 08:41:44 51°10.212 2°41.351 20.412292 4.745352 34.144428 0.196324
2004-08-18 08:41:47 51°10.207 2°41.333 20.414344 4.745141 34.142725 0.196324
2004-08-18 08:41:55 51°10.193 2°41.288 20.411769 4.74493 34.142713 0.162614
2004-08-18 08:41:59 51°10.186 2°41.265 20.411769 4.74493 34.142713 0.162614
2004-08-18 08:42:04 51°10.177 2°41.237 20.411528 4.744719 34.142138 0.196324
2004-08-18 08:42:08 51°10.17 2°41.214 20.410723 4.744825 34.14468 0.230033
2004-08-18 08:42:13 51°10.162 2°41.185 20.408108 4.744719 34.143265 0.196324
2004-08-18 08:42:19 51°10.153 2°41.15 20.408872 4.74493 34.144968 0.196324
2004-08-18 08:42:24 51°10.145 2°41.121 20.406499 4.744614 34.143541 0.162614
2004-08-18 08:42:28 51°10.139 2°41.097 20.406499 4.744614 34.143541 0.162614
2004-08-18 08:42:33 51°10.133 2°41.068 20.406056 4.744614 34.144105 0.196324
2004-08-18 08:42:37 51°10.127 2°41.044 20.405453 4.744825 34.145808 0.196324
2004-08-18 08:42:44 51°10.118 2°41.003 20.408269 4.744719 34.146647 0.263742
2004-08-18 08:42:48 51°10.112 2°40.979 20.40332 4.744508 34.144381 0.331161
2004-08-18 08:42:52 51°10.107 2°40.955 20.400343 4.744403 34.144657 0.196324
2004-08-18 08:42:59 51°10.097 2°40.914 20.400343 4.744403 34.144657 0.196324
2004-08-18 08:43:05 51°10.089 2°40.878 20.400866 4.744508 34.146636 0.230033
2004-08-18 08:43:09 51°10.083 2°40.855 20.399941 4.743981 34.142943 0.230033
2004-08-18 08:43:14 51°10.075 2°40.826 20.401107 4.744086 34.144358 0.196324
2004-08-18 08:43:19 51°10.068 2°40.796 20.396319 4.743664 34.14208 0.230033
2004-08-18 08:43:24 51°10.062 2°40.766 20.402717 4.743981 34.145198 0.263742
2004-08-18 08:43:29 51°10.057 2°40.736 20.402717 4.743981 34.145198 0.263742
2004-08-18 08:43:35 51°10.053 2°40.699 20.397607 4.743242 34.142056 0.230033
2004-08-18 08:43:39 51°10.051 2°40.674 20.397084 4.743242 34.141493 0.263742
2004-08-18 08:43:44 51°10.05 2°40.643 20.394267 4.739444 34.111967 0.263742
2004-08-18 08:43:49 51°10.049 2°40.612 20.39471 4.742504 34.137223 0.263742
2004-08-18 08:43:54 51°10.049 2°40.58 20.394831 4.742293 34.134957 0.230033
2004-08-18 08:43:59 51°10.049 2°40.549 20.394831 4.742293 34.134957 0.230033
2004-08-18 08:44:04 51°10.048 2°40.518 20.392054 4.742082 34.133254 0.263742
2004-08-18 08:44:09 51°10.047 2°40.486 20.390686 4.74166 34.129848 0.263742
2004-08-18 08:44:15 51°10.044 2°40.449 20.390605 4.741238 34.128696 0.297452
2004-08-18 08:44:19 51°10.041 2°40.424 20.388835 4.740288 34.121596 0.297452
2004-08-18 08:44:24 51°10.038 2°40.392 20.390726 4.73955 34.116762 0.263742
2004-08-18 08:44:29 51°10.035 2°40.361 20.390726 4.73955 34.116762 0.263742
2004-08-18 08:44:32 51°10.032 2°40.343 20.390887 4.739339 34.115623 0.331161
2004-08-18 08:44:39 51°10.027 2°40.299 20.391209 4.738495 34.111064 0.331161
2004-08-18 08:44:44 51°10.022 2°40.269 20.390082 4.738178 34.10851 0.297452
2004-08-18 08:44:49 51°10.017 2°40.238 20.389599 4.737862 34.107082 0.331161
2004-08-18 08:44:53 51°10.012 2°40.214 20.389157 4.738495 34.112191 0.331161
2004-08-18 08:44:59 51°10.005 2°40.178 20.389157 4.738495 34.112191 0.331161
2004-08-18 08:45:03 51°10 2°40.154 20.390042 4.737123 34.101121 0.297452
2004-08-18 08:45:08 51°9.994 2°40.124 20.392336 4.73649 34.097138 0.297452
2004-08-18 08:45:14 51°9.985 2°40.088 20.393905 4.737018 34.101396 0.297452
2004-08-18 08:45:19 51°9.978 2°40.059 20.390525 4.736385 34.095723 0.331161
2004-08-18 08:45:23 51°9.972 2°40.035 20.395233 4.73649 34.097138 0.297452
2004-08-18 08:45:29 51°9.962 2°40.001 20.395233 4.73649 34.097138 0.297452
2004-08-18 08:45:34 51°9.954 2°39.972 20.392819 4.736279 34.094309 0.297452
2004-08-18 08:45:39 51°9.945 2°39.943 20.392255 4.736068 34.092606 0.297452
2004-08-18 08:45:44 51°9.937 2°39.915 20.391289 4.736174 34.093457 0.297452
2004-08-18 08:45:48 51°9.93 2°39.892 20.389801 4.736279 34.093182 0.297452
2004-08-18 08:45:53 51°9.922 2°39.863 20.391128 4.735963 34.090065 0.297452
2004-08-18 08:45:59 51°9.912 2°39.829 20.391128 4.735963 34.090065 0.297452
2004-08-18 08:46:04 51°9.904 2°39.8 20.390283 4.736174 34.092331 0.331161
2004-08-18 08:46:09 51°9.896 2°39.771 20.390605 4.736174 34.091768 0.331161
2004-08-18 08:46:13 51°9.889 2°39.748 20.390887 4.735963 34.089502 0.297452
2004-08-18 08:46:19 51°9.88 2°39.713 20.390605 4.735963 34.091191 0.364871
2004-08-18 08:46:24 51°9.872 2°39.684 20.390002 4.735752 34.089488 0.331161
2004-08-18 08:46:27 51°9.867 2°39.666 20.390002 4.735752 34.089488 0.331161
2004-08-18 08:46:35 51°9.855 2°39.62 20.393704 4.735646 34.088637 0.364871
2004-08-18 08:46:39 51°9.848 2°39.597 20.392215 4.73533 34.085519 0.364871
2004-08-18 08:46:44 51°9.84 2°39.568 20.392054 4.734697 34.080973 0.263742
2004-08-18 08:46:48 51°9.833 2°39.545 20.392577 4.734697 34.08041 0.331161
2004-08-18 08:46:52 51°9.827 2°39.522 20.394388 4.73438 34.077856 0.364871
2004-08-18 08:46:59 51°9.815 2°39.482 20.394388 4.73438 34.077856 0.364871
2004-08-18 08:47:05 51°9.805 2°39.447 20.39475 4.734169 34.076153 0.364871
2004-08-18 08:47:09 51°9.798 2°39.424 20.394388 4.733642 34.071896 0.297452
2004-08-18 08:47:13 51°9.792 2°39.401 20.396842 4.733325 34.069342 0.331161
2004-08-18 08:47:19 51°9.783 2°39.366 20.398371 4.733219 34.067928 0.331161
2004-08-18 08:47:24 51°9.775 2°39.337 20.400705 4.732797 34.062835 0.39858
2004-08-18 08:47:29 51°9.767 2°39.308 20.400705 4.732797 34.062835 0.39858
2004-08-18 08:47:34 51°9.759 2°39.279 20.39982 4.732797 34.062835 0.331161
2004-08-18 08:47:39 51°9.751 2°39.249 20.400906 4.732586 34.060007 0.297452
2004-08-18 08:47:44 51°9.744 2°39.221 20.396762 4.73227 34.056891 0.331161
2004-08-18 08:47:47 51°9.739 2°39.203 20.396078 4.732164 34.055477 0.331161
2004-08-18 08:47:54 51°9.727 2°39.163 20.394348 4.731953 34.053212 0.297452
2004-08-18 08:47:59 51°9.719 2°39.135 20.394348 4.731953 34.053212 0.297452
2004-08-18 08:48:04 51°9.711 2°39.106 20.394951 4.731848 34.051236 0.331161
2004-08-18 08:48:09 51°9.703 2°39.077 20.394187 4.731848 34.051236 0.331161
2004-08-18 08:48:11 51°9.699 2°39.065 20.390646 4.73132 34.048105 0.331161
2004-08-18 08:48:19 51°9.687 2°39.019 20.390283 4.730793 34.044973 0.331161
2004-08-18 08:48:24 51°9.679 2°38.99 20.393784 4.730265 34.041842 0.331161
2004-08-18 08:48:29 51°9.672 2°38.96 20.393784 4.730265 34.041842 0.331161
2004-08-18 08:48:34 51°9.664 2°38.931 20.390082 4.729843 34.038437 0.364871
2004-08-18 08:48:39 51°9.657 2°38.902 20.385656 4.729527 34.037008 0.331161
2004-08-18 08:48:44 51°9.65 2°38.873 20.384891 4.728788 34.032735 0.331161
2004-08-18 08:48:49 51°9.642 2°38.843 20.382557 4.728577 34.031033 0.331161
2004-08-18 08:48:54 51°9.634 2°38.814 20.378653 4.728261 34.028479 0.331161
2004-08-18 08:48:59 51°9.626 2°38.785 20.378653 4.728261 34.028479 0.331161
2004-08-18 08:49:04 51°9.618 2°38.756 20.381027 4.728155 34.028752 0.297452
2004-08-18 08:49:09 51°9.609 2°38.727 20.380625 4.727417 34.024479 0.331161
2004-08-18 08:49:14 51°9.601 2°38.699 20.380625 4.726784 34.021058 0.331161
2004-08-18 08:49:19 51°9.593 2°38.67 20.377123 4.726784 34.022182 0.331161
2004-08-18 08:49:24 51°9.585 2°38.641 20.374829 4.726573 34.022165 0.364871
2004-08-18 08:49:29 51°9.577 2°38.612 20.374829 4.726573 34.022165 0.364871
2004-08-18 08:49:33 51°9.57 2°38.589 20.377123 4.726256 34.020735 0.364871
2004-08-18 08:49:37 51°9.564 2°38.565 20.372696 4.72594 34.018743 0.297452
2004-08-18 08:49:44 51°9.553 2°38.524 20.373863 4.726256 34.02186 0.331161
2004-08-18 08:49:49 51°9.546 2°38.495 20.369476 4.726045 34.020719 0.331161
2004-08-18 08:49:53 51°9.54 2°38.472 20.370643 4.726256 34.022984 0.297452
2004-08-18 08:50:00 51°9.529 2°38.43 20.370643 4.726256 34.022984 0.297452
2004-08-18 08:50:05 51°9.522 2°38.401 20.36702 4.726573 34.026663 0.297452
2004-08-18 08:50:08 51°9.518 2°38.383 20.369677 4.726045 34.024092 0.364871
2004-08-18 08:50:13 51°9.51 2°38.353 20.367543 4.726784 34.02949 0.331161
2004-08-18 08:50:19 51°9.501 2°38.318 20.363397 4.726573 34.029474 0.331161
2004-08-18 08:50:24 51°9.493 2°38.289 20.361948 4.72689 34.033154 0.331161
2004-08-18 08:50:29 51°9.485 2°38.26 20.361948 4.72689 34.033154 0.331161
2004-08-18 08:50:35 51°9.475 2°38.225 20.358164 4.72689 34.034279 0.364871
2004-08-18 08:50:39 51°9.469 2°38.202 20.359291 4.727523 34.039951 0.39858
2004-08-18 08:50:44 51°9.46 2°38.173 20.356996 4.727523 34.041639 0.364871
2004-08-18 08:50:48 51°9.454 2°38.15 20.355023 4.727839 34.045319 0.331161
2004-08-18 08:50:53 51°9.446 2°38.121 20.353896 4.72805 34.047586 0.331161
2004-08-18 08:50:59 51°9.436 2°38.086 20.353896 4.72805 34.047586 0.331161
2004-08-18 08:51:04 51°9.428 2°38.057 20.35305 4.72805 34.0504 0.364871
2004-08-18 08:51:09 51°9.42 2°38.028 20.35297 4.729 34.059192 0.364871
2004-08-18 08:51:14 51°9.413 2°37.999 20.350151 4.728894 34.06003 0.39858
2004-08-18 08:51:19 51°9.405 2°37.97 20.34532 4.729316 34.064564 0.39858
2004-08-18 08:51:24 51°9.397 2°37.941 20.338836 4.730055 34.070528 0.364871
2004-08-18 08:51:29 51°9.389 2°37.912 20.338836 4.730055 34.070528 0.364871
2004-08-18 08:51:35 51°9.38 2°37.877 20.338313 4.729844 34.06995 0.39858
2004-08-18 08:51:39 51°9.373 2°37.854 20.33344 4.73016 34.073633 0.364871
2004-08-18 08:51:44 51°9.365 2°37.826 20.332151 4.730688 34.079584 0.432289
2004-08-18 08:51:49 51°9.357 2°37.796 20.327358 4.730477 34.081261 0.39858
2004-08-18 08:51:53 51°9.351 2°37.773 20.322283 4.730794 34.086637 0.39858
2004-08-18 08:51:59 51°9.342 2°37.738 20.322283 4.730794 34.086637 0.39858
2004-08-18 08:52:04 51°9.334 2°37.709 20.312172 4.730794 34.088892 0.432289
2004-08-18 08:52:08 51°9.329 2°37.685 20.310279 4.731005 34.093416 0.432289
2004-08-18 08:52:14 51°9.32 2°37.65 20.306089 4.730899 34.09482 0.499708
2004-08-18 08:52:20 51°9.312 2°37.614 20.297789 4.730688 34.095935 0.600836
2004-08-18 08:52:24 51°9.308 2°37.59 20.297547 4.730899 34.10159 0.499708
2004-08-18 08:52:28 51°9.303 2°37.565 20.297547 4.730899 34.10159 0.499708
2004-08-18 08:52:34 51°9.297 2°37.529 20.294525 4.730583 34.102418 0.600836
2004-08-18 08:52:39 51°9.293 2°37.5 20.28844 4.730583 34.106934 0.600836
2004-08-18 08:52:44 51°9.29 2°37.472 20.281629 4.730478 34.110034 0.533418
2004-08-18 08:52:48 51°9.288 2°37.45 20.279493 4.730267 34.113976 0.600836
2004-08-18 08:52:53 51°9.286 2°37.424 20.275422 4.730372 34.117088 0.567127
2004-08-18 08:52:59 51°9.283 2°37.394 20.275422 4.730372 34.117088 0.567127
2004-08-18 08:53:04 51°9.28 2°37.37 20.273003 4.730583 34.12049 0.735674
2004-08-18 08:53:08 51°9.276 2°37.351 20.26861 4.730794 34.125587 0.769383
2004-08-18 08:53:15 51°9.269 2°37.322 20.265506 4.730372 34.126696 0.701965
2004-08-18 08:53:19 51°9.264 2°37.306 20.263087 4.7309 34.134921 0.735674
2004-08-18 08:53:24 51°9.257 2°37.288 20.259821 4.730795 34.137461 0.803093
2004-08-18 08:53:29 51°9.25 2°37.271 20.259821 4.730795 34.137461 0.803093
2004-08-18 08:53:35 51°9.24 2°37.256 20.254136 4.730584 34.137451 0.904221
2004-08-18 08:53:39 51°9.232 2°37.248 20.252887 4.730478 34.140558 0.769383
2004-08-18 08:53:44 51°9.223 2°37.239 20.248734 4.730689 34.145661 0.803093
2004-08-18 08:53:48 51°9.216 2°37.235 20.249621 4.730689 34.147359 0.769383
2004-08-18 08:53:54 51°9.205 2°37.23 20.252564 4.730267 34.147339 0.870512
2004-08-18 08:53:59 51°9.198 2°37.227 20.252564 4.730267 34.147339 0.870512
2004-08-18 08:54:04 51°9.19 2°37.225 20.250629 4.729845 34.148453 0.836802
2004-08-18 08:54:08 51°9.185 2°37.224 20.247 4.729529 34.148156 0.769383
2004-08-18 08:54:14 51°9.177 2°37.224 20.242524 4.729529 34.150421 0.769383
2004-08-18 08:54:19 51°9.171 2°37.224 20.245669 4.728896 34.146429 0.735674
2004-08-18 08:54:25 51°9.164 2°37.226 20.246153 4.728896 34.145862 0.870512
2004-08-18 08:54:29 51°9.159 2°37.228 20.246153 4.728896 34.145862 0.870512
2004-08-18 08:54:35 51°9.153 2°37.233 20.246838 4.729001 34.147283 0.870512
2004-08-18 08:54:39 51°9.149 2°37.237 20.247806 4.728052 34.141294 0.904221
2004-08-18 08:54:44 51°9.145 2°37.244 20.245024 4.727525 34.138722 0.870512
2004-08-18 08:54:49 51°9.141 2°37.251 20.245064 4.726891 34.133031 0.836802
2004-08-18 08:54:52 51°9.139 2°37.255 20.249419 4.726786 34.131611 0.904221
2004-08-18 08:54:59 51°9.137 2°37.266 20.249419 4.726786 34.131611 0.904221
2004-08-18 08:55:04 51°9.136 2°37.274 20.247725 4.72668 34.130757 0.803093
2004-08-18 08:55:09 51°9.135 2°37.28 20.246395 4.726153 34.126486 0.870512
2004-08-18 08:55:15 51°9.135 2°37.288 20.241233 4.725203 34.119365 0.836802
2004-08-18 08:55:19 51°9.135 2°37.292 20.237241 4.725625 34.12165 0.769383
2004-08-18 08:55:24 51°9.135 2°37.297 20.237644 4.725625 34.121084 0.735674
2004-08-18 08:55:28 51°9.135 2°37.3 20.237644 4.725625 34.121084 0.735674
2004-08-18 08:55:34 51°9.135 2°37.302 20.239378 4.724887 34.117369 0.803093
2004-08-18 08:55:39 51°9.135 2°37.303 20.240064 4.724887 34.117369 0.769383
2004-08-18 08:55:44 51°9.134 2°37.303 20.23833 4.724043 34.111667 0.769383
2004-08-18 08:55:48 51°9.134 2°37.302 20.238773 4.72341 34.108806 0.803093
2004-08-18 08:55:53 51°9.134 2°37.302 20.241193 4.72341 34.10824 0.769383
2004-08-18 08:55:58 51°9.134 2°37.302 20.241193 4.72341 34.10824 0.769383
2004-08-18 08:56:04 51°9.134 2°37.302 20.236515 4.723093 34.106809 0.769383
2004-08-18 08:56:08 51°9.134 2°37.301 20.237765 4.723304 34.107952 0.836802
2004-08-18 08:56:13 51°9.134 2°37.301 20.236354 4.722566 34.101973 0.735674
2004-08-18 08:56:19 51°9.134 2°37.301 20.236112 4.722355 34.100265 0.769383
2004-08-18 08:56:24 51°9.134 2°37.301 20.238531 4.722249 34.099976 0.803093
2004-08-18 08:56:29 51°9.134 2°37.301 20.238531 4.722249 34.099976 0.803093
2004-08-18 08:56:35 51°9.135 2°37.301 20.237362 4.722144 34.099122 0.769383
2004-08-18 08:56:39 51°9.135 2°37.3 20.23591 4.722249 34.100542 0.735674
2004-08-18 08:56:44 51°9.135 2°37.3 20.235184 4.721722 34.097403 0.701965
2004-08-18 08:56:48 51°9.135 2°37.3 20.242443 4.721616 34.095983 0.701965
2004-08-18 08:56:53 51°9.135 2°37.3 20.236112 4.721616 34.096548 0.870512
2004-08-18 08:56:59 51°9.135 2°37.3 20.236112 4.721616 34.096548 0.870512
2004-08-18 08:57:05 51°9.136 2°37.3 20.235265 4.721511 34.094563 0.600836
2004-08-18 08:57:09 51°9.136 2°37.3 20.235224 4.721827 34.098257 0.701965
2004-08-18 08:57:14 51°9.136 2°37.3 20.232643 4.721827 34.097691 0.701965
2004-08-18 08:57:19 51°9.136 2°37.3 20.236394 4.721511 34.094563 0.668255
2004-08-18 08:57:25 51°9.136 2°37.3 20.2372 4.721511 34.095129 0.870512
2004-08-18 08:57:28 51°9.136 2°37.299 20.2372 4.721511 34.095129 0.870512
2004-08-18 08:57:33 51°9.136 2°37.299 20.232079 4.720983 34.091989 0.803093
2004-08-18 08:57:39 51°9.136 2°37.299 20.233006 4.7213 34.095117 0.701965
2004-08-18 08:57:44 51°9.136 2°37.298 20.230143 4.721405 34.095406 0.769383
2004-08-18 08:57:49 51°9.136 2°37.298 20.232925 4.720983 34.091989 0.735674
2004-08-18 08:57:54 51°9.136 2°37.297 20.23224 4.721194 34.093132 0.668255
2004-08-18 08:57:57 51°9.136 2°37.297 20.23224 4.721194 34.093132 0.668255
2004-08-18 08:58:05 51°9.136 2°37.295 20.230869 4.721405 34.095971 0.701965
2004-08-18 08:58:08 51°9.136 2°37.295 20.228166 4.721194 34.095394 0.803093
2004-08-18 08:58:13 51°9.136 2°37.294 20.2274 4.720983 34.094252 0.735674
2004-08-18 08:58:19 51°9.136 2°37.293 20.226392 4.721089 34.095671 0.634546
2004-08-18 08:58:24 51°9.136 2°37.292 20.226028 4.721405 34.098234 0.803093
2004-08-18 08:58:29 51°9.136 2°37.291 20.226028 4.721405 34.098234 0.803093
2004-08-18 08:58:33 51°9.136 2°37.29 20.22502 4.720878 34.09566 0.701965
2004-08-18 08:58:39 51°9.136 2°37.289 20.227682 4.721194 34.098223 0.93793
2004-08-18 08:58:44 51°9.136 2°37.287 20.22861 4.721195 34.098789 0.701965
2004-08-18 08:58:49 51°9.136 2°37.286 20.2274 4.720984 34.098212 0.701965
2004-08-18 08:58:55 51°9.136 2°37.284 20.225786 4.721089 34.100198 0.836802
2004-08-18 08:58:59 51°9.136 2°37.283 20.225786 4.721089 34.100198 0.836802
2004-08-18 08:59:04 51°9.136 2°37.282 20.226835 4.721195 34.100486 0.668255
2004-08-18 08:59:09 51°9.136 2°37.28 20.225544 4.720984 34.098777 0.97164
2004-08-18 08:59:13 51°9.136 2°37.279 20.224133 4.721089 34.099632 0.769383
2004-08-18 08:59:19 51°9.136 2°37.277 20.226028 4.721195 34.100486 0.836802
2004-08-18 08:59:23 51°9.136 2°37.276 20.22623 4.721089 34.100763 0.870512
2004-08-18 08:59:29 51°9.137 2°37.274 20.22623 4.721089 34.100763 0.870512
2004-08-18 08:59:35 51°9.137 2°37.273 20.224133 4.721195 34.101052 0.836802
2004-08-18 08:59:39 51°9.137 2°37.272 20.224697 4.720984 34.099343 0.93793
2004-08-18 08:59:45 51°9.137 2°37.27 20.224334 4.7213 34.103038 0.870512
2004-08-18 08:59:49 51°9.137 2°37.269 20.226472 4.7213 34.102472 0.803093
2004-08-18 08:59:55 51°9.137 2°37.268 20.223568 4.721195 34.10275 0.803093
2004-08-18 08:59:59 51°9.137 2°37.267 20.223568 4.721195 34.10275 0.803093
2004-08-18 09:00:04 51°9.137 2°37.266 20.224254 4.721089 34.101895 0.836802
2004-08-18 09:00:09 51°9.137 2°37.266 20.226311 4.721195 34.101618 0.735674
2004-08-18 09:00:15 51°9.137 2°37.265 20.223286 4.721617 34.105601 0.769383
2004-08-18 09:00:19 51°9.137 2°37.264 20.223286 4.721511 34.104181 0.668255
2004-08-18 09:00:24 51°9.136 2°37.263 20.223568 4.721511 34.105313 0.870512
2004-08-18 09:00:29 51°9.136 2°37.263 20.223568 4.721511 34.105313 0.870512
2004-08-18 09:00:33 51°9.136 2°37.262 20.224496 4.721511 34.105313 0.836802
2004-08-18 09:00:39 51°9.136 2°37.262 20.223891 4.721406 34.104458 0.870512
2004-08-18 09:00:44 51°9.136 2°37.261 20.221834 4.721511 34.106445 0.735674
2004-08-18 09:00:49 51°9.135 2°37.261 20.22381 4.7213 34.10417 0.93793
2004-08-18 09:00:55 51°9.135 2°37.26 20.2226 4.721722 34.108154 0.769383
2004-08-18 09:00:59 51°9.135 2°37.26 20.2226 4.721722 34.108154 0.769383
2004-08-18 09:01:04 51°9.135 2°37.26 20.223366 4.721511 34.105879 0.769383
2004-08-18 09:01:10 51°9.135 2°37.26 20.222519 4.721511 34.105879 0.836802
2004-08-18 09:01:14 51°9.135 2°37.26 20.225504 4.721406 34.105024 0.904221
2004-08-18 09:01:19 51°9.135 2°37.26 20.228529 4.721617 34.106733 0.93793
2004-08-18 09:01:24 51°9.135 2°37.26 20.225101 4.721089 34.103593 0.870512
2004-08-18 09:01:27 51°9.134 2°37.26 20.225101 4.721089 34.103593 0.870512
2004-08-18 09:01:35 51°9.134 2°37.26 20.225948 4.7213 34.10417 0.870512
2004-08-18 09:01:39 51°9.133 2°37.26 20.228045 4.721617 34.107865 0.803093
2004-08-18 09:01:44 51°9.133 2°37.26 20.225181 4.721617 34.106167 0.769383
2004-08-18 09:01:49 51°9.133 2°37.26 20.226714 4.721722 34.107021 0.735674
2004-08-18 09:01:54 51°9.133 2°37.26 20.226392 4.721933 34.108164 0.735674
2004-08-18 09:01:59 51°9.133 2°37.26 20.226392 4.721933 34.108164 0.735674
2004-08-18 09:02:04 51°9.133 2°37.26 20.22861 4.722039 34.109585 0.803093
2004-08-18 09:02:09 51°9.133 2°37.261 20.228207 4.721722 34.105324 0.836802
2004-08-18 09:02:13 51°9.133 2°37.261 20.228449 4.722144 34.109307 0.836802
2004-08-18 09:02:20 51°9.132 2°37.262 20.229296 4.722039 34.108453 0.803093
2004-08-18 09:02:23 51°9.132 2°37.262 20.23103 4.722144 34.109307 0.803093
2004-08-18 09:02:29 51°9.132 2°37.263 20.23103 4.722144 34.109307 0.803093
2004-08-18 09:02:34 51°9.132 2°37.263 20.233369 4.722144 34.108175 0.870512
2004-08-18 09:02:39 51°9.132 2°37.264 20.233853 4.722777 34.112735 0.735674
2004-08-18 09:02:44 51°9.131 2°37.264 20.236071 4.722672 34.112447 0.769383
2004-08-18 09:02:49 51°9.131 2°37.265 20.236797 4.722988 34.114444 0.836802
2004-08-18 09:02:55 51°9.131 2°37.265 20.237321 4.722988 34.113878 0.97164
2004-08-18 09:02:59 51°9.131 2°37.266 20.237321 4.722988 34.113878 0.97164
2004-08-18 09:03:05 51°9.13 2°37.266 20.238088 4.723305 34.114743 0.870512
2004-08-18 09:03:09 51°9.13 2°37.267 20.236797 4.72341 34.114465 0.870512
2004-08-18 09:03:15 51°9.13 2°37.267 20.23595 4.723621 34.114475 0.769383
2004-08-18 09:03:19 51°9.13 2°37.267 20.234377 4.723832 34.116184 0.904221
2004-08-18 09:03:25 51°9.129 2°37.268 20.23353 4.72436 34.119323 0.735674
2004-08-18 09:03:29 51°9.129 2°37.268 20.23353 4.72436 34.119323 0.735674
2004-08-18 09:03:34 51°9.129 2°37.268 20.235184 4.723937 34.11534 0.836802
2004-08-18 09:03:39 51°9.129 2°37.268 20.232562 4.724465 34.120177 0.93793
2004-08-18 09:03:44 51°9.128 2°37.269 20.235668 4.724571 34.120466 0.735674
2004-08-18 09:03:49 51°9.128 2°37.269 20.235829 4.724571 34.12273 0.701965
2004-08-18 09:03:54 51°9.127 2°37.269 20.235063 4.72436 34.121021 0.769383
2004-08-18 09:03:59 51°9.127 2°37.269 20.235063 4.72436 34.121021 0.769383
2004-08-18 09:04:05 51°9.127 2°37.269 20.23353 4.724465 34.121876 0.769383
2004-08-18 09:04:09 51°9.126 2°37.269 20.234902 4.724465 34.121876 0.701965
2004-08-18 09:04:14 51°9.126 2°37.269 20.234821 4.724571 34.12273 0.668255
2004-08-18 09:04:20 51°9.126 2°37.269 20.235345 4.724254 34.120167 0.803093
2004-08-18 09:04:25 51°9.125 2°37.269 20.236596 4.724782 34.12274 0.904221
2004-08-18 09:04:27 51°9.125 2°37.269 20.236596 4.724782 34.12274 0.904221
2004-08-18 09:04:36 51°9.124 2°37.269 20.235305 4.725098 34.127001 0.701965
2004-08-18 09:04:41 51°9.124 2°37.269 20.235305 4.725098 34.127001 0.701965
2004-08-18 09:04:47 51°9.124 2°37.269 20.235587 4.725098 34.126435 0.769383
2004-08-18 09:04:52 51°9.123 2°37.269 20.235749 4.725204 34.126723 0.735674
2004-08-18 09:04:56 51°9.123 2°37.269 20.235345 4.724993 34.125581 0.836802
2004-08-18 09:05:01 51°9.123 2°37.269 20.235749 4.72552 34.12872 1.005349
2004-08-18 09:05:07 51°9.122 2°37.269 20.236071 4.725204 34.126723 0.870512
2004-08-18 09:05:15 51°9.122 2°37.268 20.236071 4.725204 34.126723 0.870512
2004-08-18 09:05:20 51°9.121 2°37.268 20.236878 4.725309 34.127011 0.701965
2004-08-18 09:05:25 51°9.121 2°37.268 20.23716 4.725309 34.127578 0.836802
2004-08-18 09:05:29 51°9.121 2°37.268 20.236878 4.725204 34.126157 0.668255
2004-08-18 09:05:33 51°9.12 2°37.268 20.23841 4.725731 34.130995 0.836802
2004-08-18 09:05:37 51°9.12 2°37.268 20.238168 4.725731 34.130995 0.769383
2004-08-18 09:05:41 51°9.12 2°37.268 20.238168 4.725731 34.130995 0.769383
2004-08-18 09:06:16 51°9.117 2°37.266 20.240346 4.726259 34.133568 0.769383
2004-08-18 09:06:22 51°9.116 2°37.266 20.239741 4.726153 34.132147 0.803093
2004-08-18 09:06:26 51°9.116 2°37.265 20.240749 4.726153 34.132147 0.870512
2004-08-18 09:06:31 51°9.115 2°37.265 20.241596 4.726048 34.131293 0.803093
2004-08-18 09:06:36 51°9.115 2°37.265 20.23966 4.726259 34.132435 0.735674
2004-08-18 09:06:41 51°9.115 2°37.265 20.23966 4.726259 34.132435 0.735674
2004-08-18 09:06:46 51°9.114 2°37.264 20.239459 4.726259 34.133001 0.769383
2004-08-18 09:06:52 51°9.114 2°37.264 20.240346 4.726259 34.131869 0.803093
2004-08-18 09:06:56 51°9.114 2°37.264 20.239257 4.726259 34.131303 0.735674
2004-08-18 09:07:01 51°9.113 2°37.263 20.238773 4.726575 34.134432 0.769383
2004-08-18 09:07:07 51°9.113 2°37.263 20.241757 4.72647 34.133011 0.735674
2004-08-18 09:07:11 51°9.112 2°37.263 20.241757 4.72647 34.133011 0.735674
2004-08-18 09:07:16 51°9.112 2°37.262 20.240144 4.726575 34.134432 0.836802
2004-08-18 09:07:20 51°9.111 2°37.262 20.241596 4.726681 34.135286 0.701965
2004-08-18 09:07:25 51°9.111 2°37.262 20.242201 4.726681 34.13472 0.93793
2004-08-18 09:07:29 51°9.11 2°37.261 20.242806 4.726575 34.133865 0.904221
2004-08-18 09:07:36 51°9.11 2°37.261 20.243774 4.726786 34.13614 0.836802
2004-08-18 09:07:41 51°9.109 2°37.261 20.243774 4.726786 34.13614 0.836802
2004-08-18 09:07:47 51°9.109 2°37.26 20.243612 4.726892 34.135862 0.836802
2004-08-18 09:07:52 51°9.108 2°37.26 20.244096 4.726681 34.13472 0.803093
2004-08-18 09:07:55 51°9.108 2°37.26 20.24454 4.726892 34.135296 0.803093
2004-08-18 09:08:00 51°9.108 2°37.259 20.244782 4.727208 34.137292 0.769383
2004-08-18 09:08:05 51°9.107 2°37.259 20.245225 4.726997 34.135017 0.803093
2004-08-18 09:08:11 51°9.107 2°37.259 20.245225 4.726997 34.135017 0.803093
2004-08-18 09:08:16 51°9.106 2°37.258 20.245669 4.726997 34.135584 0.870512
2004-08-18 09:08:20 51°9.106 2°37.258 20.245064 4.727313 34.137014 0.735674
2004-08-18 09:08:25 51°9.105 2°37.257 20.245992 4.727208 34.13616 0.803093
2004-08-18 09:08:31 51°9.105 2°37.257 20.246274 4.727208 34.135593 0.93793
2004-08-18 09:08:37 51°9.104 2°37.256 20.246677 4.727419 34.137302 0.803093
2004-08-18 09:08:41 51°9.104 2°37.256 20.246677 4.727419 34.137302 0.803093
2004-08-18 09:08:45 51°9.104 2°37.256 20.247282 4.727524 34.13759 0.803093
2004-08-18 09:08:48 51°9.103 2°37.255 20.249177 4.727524 34.13759 0.803093
2004-08-18 09:08:56 51°9.103 2°37.255 20.2495 4.72763 34.137878 0.836802
2004-08-18 09:09:00 51°9.102 2°37.254 20.24833 4.727524 34.136457 0.93793
2004-08-18 09:09:06 51°9.102 2°37.254 20.248653 4.727946 34.139308 0.701965
2004-08-18 09:09:10 51°9.101 2°37.253 20.248653 4.727946 34.139308 0.701965
2004-08-18 09:09:16 51°9.101 2°37.253 20.247725 4.728052 34.139596 0.904221
2004-08-18 09:09:20 51°9.1 2°37.253 20.248814 4.727841 34.137887 0.769383
2004-08-18 09:09:26 51°9.1 2°37.252 20.248532 4.728263 34.140738 0.803093
2004-08-18 09:09:32 51°9.099 2°37.252 20.248935 4.728157 34.139884 0.735674
2004-08-18 09:09:35 51°9.099 2°37.252 20.251596 4.727841 34.137321 0.836802
2004-08-18 09:09:40 51°9.098 2°37.251 20.251596 4.727841 34.137321 0.836802
2004-08-18 09:09:45 51°9.098 2°37.251 20.249983 4.728052 34.138463 0.93793
2004-08-18 09:09:51 51°9.097 2°37.251 20.251153 4.728052 34.139596 0.701965
2004-08-18 09:09:56 51°9.096 2°37.251 20.249943 4.728157 34.139884 0.870512
2004-08-18 09:10:01 51°9.096 2°37.251 20.249621 4.728052 34.137897 0.769383
2004-08-18 09:10:04 51°9.096 2°37.25 20.251596 4.728157 34.138185 0.870512
2004-08-18 09:10:12 51°9.095 2°37.25 20.251596 4.728157 34.138185 0.870512
2004-08-18 09:10:15 51°9.095 2°37.25 20.252282 4.728368 34.139327 0.870512
2004-08-18 09:10:21 51°9.094 2°37.25 20.253209 4.728474 34.140747 0.769383
2004-08-18 09:10:26 51°9.094 2°37.25 20.253128 4.728368 34.139893 0.97164
2004-08-18 09:10:32 51°9.093 2°37.25 20.255628 4.728263 34.139039 0.735674
2004-08-18 09:10:35 51°9.093 2°37.25 20.256112 4.728263 34.139039 0.904221
2004-08-18 09:10:40 51°9.093 2°37.25 20.256112 4.728263 34.139039 0.904221
2004-08-18 09:10:47 51°9.092 2°37.249 20.256394 4.728368 34.139327 0.93793
2004-08-18 09:10:51 51°9.092 2°37.249 20.256112 4.728263 34.138473 0.904221
2004-08-18 09:10:56 51°9.091 2°37.249 20.25458 4.728474 34.138483 0.97164
2004-08-18 09:10:59 51°9.091 2°37.249 20.256797 4.728579 34.138771 0.836802
2004-08-18 09:11:05 51°9.09 2°37.249 20.258289 4.72879 34.139913 0.634546
2004-08-18 09:11:12 51°9.09 2°37.249 20.258289 4.72879 34.139913 0.634546
2004-08-18 09:11:16 51°9.09 2°37.249 20.257523 4.728896 34.140201 0.769383
2004-08-18 09:11:20 51°9.089 2°37.249 20.259902 4.728474 34.136785 0.735674
2004-08-18 09:11:25 51°9.089 2°37.249 20.259217 4.728896 34.140201 0.836802